GFSWCAN_sfc_30mbdewp_000.txt.gz
Dewpoint
50 51 51 51 51 51 51 51 52 52 52 51 51 51 50 50 50 52 52 51 49 45 45 43 43 41 41 40 39 40 39 40 37 35 34 34 32 33 33 31 31 30 31 29 31 28 25 29 26 26 30 36 35 36
48 49 50 50 51 51 51 51 51 51 51 51 51 51 50 50 50 51 50 53 51 47 46 48 46 45 44 42 40 41 38 38 40 38 37 37 33 34 34 29 33 31 34 31 30 28 30 32 32 35 37 36 36 37
47 48 49 49 49 50 50 51 50 50 50 51 51 50 50 50 50 51 50 52 50 45 46 47 46 47 47 46 46 42 41 41 40 40 39 38 34 36 32 33 33 34 36 34 35 34 33 34 36 37 37 37 37 39
47 48 48 48 49 49 49 50 50 50 50 50 50 50 50 50 50 50 49 52 50 44 40 42 48 46 47 47 46 46 44 45 44 45 40 37 35 39 35 36 35 36 37 36 36 38 35 36 35 36 38 38 39 39
46 46 47 48 48 48 48 49 49 50 50 50 50 50 51 50 50 50 50 51 51 46 40 39 43 45 45 46 46 46 46 45 45 40 38 37 39 39 39 38 36 39 37 35 33 35 36 37 36 35 36 37 39 41
45 47 46 47 47 47 48 48 48 48 49 49 49 50 50 49 49 47 42 47 50 49 42 36 41 41 44 45 44 43 44 45 45 41 39 40 41 39 34 33 36 36 36 35 35 36 36 35 36 36 38 39 39 39
44 45 46 47 46 46 46 46 46 47 47 47 48 48 48 49 48 44 40 44 48 49 40 33 35 38 37 40 42 42 44 44 43 41 39 39 38 40 36 32 34 35 33 33 35 36 36 35 36 38 38 33 31 33
45 45 46 46 45 45 45 45 45 45 45 46 46 46 47 47 45 43 46 48 48 43 40 32 33 35 37 37 37 40 40 40 41 39 40 37 37 37 33 32 31 28 29 31 32 34 36 36 35 27 25 25 26 29
45 46 45 44 44 44 44 44 44 45 45 45 45 46 45 42 39 41 46 47 47 42 33 32 30 31 37 37 37 38 38 35 40 36 36 34 34 31 29 27 28 29 30 31 34 34 31 23 22 24 25 27 29 31
45 44 43 43 42 43 43 44 44 44 45 45 42 38 35 40 44 45 42 37 36 37 36 32 36 33 35 35 34 35 35 33 30 33 36 33 31 31 30 31 31 32 33 32 27 23 23 25 24 26 30 33 35 34
43 42 41 41 40 40 41 41 41 40 39 39 37 36 41 43 42 38 33 32 33 31 34 35 35 32 36 31 32 36 33 32 28 28 31 29 27 26 28 28 28 25 25 24 23 24 25 27 29 30 32 34 33 33
40 40 40 40 40 40 41 40 40 39 38 38 39 40 39 37 35 31 30 32 30 28 33 33 33 33 35 36 34 33 31 32 26 29 27 25 25 25 24 22 23 24 24 24 23 25 27 30 33 34 34 33 31 28
39 39 39 40 40 40 40 41 38 41 41 40 35 33 32 32 26 23 22 27 29 33 32 32 31 32 33 32 31 30 27 27 29 25 25 25 24 23 23 23 23 24 24 23 24 26 30 31 32 32 32 30 28 26
37 38 38 38 38 38 39 41 41 38 36 32 29 25 25 24 25 25 27 30 31 32 32 31 30 30 32 30 31 27 29 28 24 21 21 22 21 21 23 25 25 24 25 24 24 27 30 30 30 26 25 23 22 22
37 37 37 37 37 37 38 41 39 37 34 30 29 22 24 27 28 29 29 30 32 33 32 31 29 30 29 27 29 28 25 21 22 21 25 24 23 24 25 26 26 27 26 25 25 27 28 28 25 22 21 24 25 24
37 36 35 37 36 37 38 38 36 36 31 28 26 23 26 26 27 27 27 29 32 31 30 29 24 22 22 26 24 23 21 15 15 27 27 23 23 24 25 28 29 28 26 25 25 26 27 25 23 23 25 25 25 26
36 32 36 36 37 38 36 32 33 30 27 24 23 26 26 27 26 27 28 29 32 29 23 26 21 17 22 22 21 22 16 18 23 25 25 23 24 25 26 28 30 30 28 27 25 27 29 24 24 22 21 25 25 26
34 33 36 36 36 37 36 34 30 28 22 23 22 23 25 26 27 28 28 29 29 28 22 19 23 21 20 14 9 17 21 24 26 26 25 24 25 26 27 28 30 32 31 28 30 29 24 23 21 19 24 25 27 28
34 33 37 38 36 34 30 30 30 21 20 22 25 26 26 28 29 28 29 30 30 26 28 27 21 17 17 18 22 26 27 27 25 25 26 27 26 28 30 31 32 33 33 31 29 27 25 22 22 22 23 26 27 27
35 34 36 37 33 31 27 27 31 24 20 21 23 24 24 25 28 29 30 30 28 28 24 22 17 20 21 21 20 20 22 25 26 27 27 26 26 29 31 31 32 32 31 30 29 29 26 23 24 25 27 28 29 27
35 35 34 35 33 32 29 27 25 23 22 23 24 25 23 27 26 26 26 28 26 23 20 20 22 23 22 22 22 23 24 25 26 27 27 26 28 31 32 33 32 31 30 30 30 28 25 25 27 27 27 28 28 28
37 37 34 35 31 31 29 29 25 26 25 25 25 25 22 21 22 23 26 25 22 22 24 23 22 22 22 21 22 22 24 26 27 28 27 28 28 30 31 31 30 30 30 31 30 29 27 26 27 27 28 28 25 26
37 34 32 31 28 27 26 29 25 25 20 21 24 21 21 21 23 24 20 19 17 20 19 19 20 21 22 23 24 25 26 27 27 27 28 29 30 32 31 31 31 30 29 28 26 27 27 26 26 28 27 26 26 26
36 31 27 26 26 22 26 23 25 24 24 20 19 17 17 19 21 20 16 16 18 19 18 19 20 21 22 23 23 24 25 27 28 28 29 29 30 31 31 29 29 29 28 27 25 28 27 28 27 26 25 25 24 23
26 25 26 22 26 22 20 18 19 20 18 18 18 15 18 20 17 14 13 14 18 21 23 23 24 24 24 26 27 28 30 30 28 28 30 31 32 29 26 25 25 26 28 28 27 27 27 27 26 23 22 23 23 23
20 23 23 21 21 20 18 15 17 17 16 15 17 18 19 18 15 14 13 16 21 22 26 28 28 28 29 29 29 28 29 29 29 29 31 31 31 30 28 26 26 27 29 30 28 28 27 26 25 23 23 24 23 24
19 19 24 24 21 21 19 18 18 18 16 15 17 17 18 15 14 15 19 22 20 27 29 31 30 29 29 29 29 29 29 28 27 28 27 26 27 28 30 29 27 30 30 29 30 29 28 26 25 24 24 25 25 24
22 23 19 21 22 20 17 17 16 15 15 17 18 16 17 17 14 18 22 25 29 30 30 29 30 30 30 29 28 27 27 27 27 27 28 29 29 29 28 28 28 27 30 29 29 29 29 28 26 25 25 25 24 23
22 23 23 19 20 20 20 18 16 17 18 18 16 17 17 19 22 23 26 27 27 27 27 27 28 30 30 29 28 27 27 26 25 25 26 26 27 28 29 28 27 27 28 27 26 27 26 26 25 24 22 22 21 20
22 24 21 20 18 17 20 23 22 23 23 21 20 21 22 21 24 24 24 23 23 24 24 24 25 25 27 28 28 28 27 28 28 27 27 28 29 29 28 27 27 27 27 25 24 23 22 21 20 19 19 19 19 19
24 24 22 22 21 22 24 23 22 23 24 23 24 22 22 24 23 19 19 19 19 20 23 24 25 27 26 26 26 26 25 27 27 27 28 28 29 28 28 27 27 26 26 25 24 23 22 21 19 17 17 17 17 16
21 21 20 19 20 21 21 21 22 22 23 22 23 24 23 23 23 20 17 17 19 21 20 20 23 25 25 26 27 27 27 26 26 25 25 27 28 28 27 27 27 26 25 23 22 21 20 19 18 17 16 15 15 15
22 22 22 21 21 21 21 21 21 21 20 20 21 21 22 22 21 16 16 16 16 16 16 17 21 23 23 23 23 23 23 22 23 24 24 25 26 26 27 26 26 25 24 23 22 21 19 18 17 17 16 15 14 13

GFSWCAN_sfc_30mbdewp_003.txt.gz
Dewpoint
50 50 51 52 52 52 52 52 52 52 52 52 51 51 51 50 51 53 52 55 50 47 45 45 43 42 41 41 38 39 39 41 41 36 35 35 34 32 30 29 28 29 32 31 32 29 27 29 29 32 36 37 36 37
48 49 50 50 50 51 51 51 51 51 51 51 51 51 50 50 50 52 53 55 54 50 46 50 46 44 43 41 40 41 39 37 41 38 38 38 35 35 34 29 32 28 31 31 31 30 31 34 33 35 35 35 38 39
47 47 48 49 49 49 50 51 51 51 51 50 50 50 51 50 50 51 53 54 52 46 47 48 46 47 47 46 45 43 44 42 40 40 40 39 35 37 32 32 35 36 36 34 35 34 33 33 36 38 38 39 36 37
46 47 47 48 48 48 49 49 50 50 50 50 50 50 50 50 50 50 51 53 52 45 40 42 48 47 47 46 46 45 44 44 43 44 42 38 35 39 36 35 35 35 37 36 36 36 35 37 38 35 37 36 35 37
46 46 47 47 47 47 48 48 49 49 49 50 50 50 50 50 50 50 51 53 53 47 40 40 44 45 45 44 45 45 45 44 45 43 39 37 40 38 38 38 36 37 36 35 34 38 38 36 33 33 34 37 37 35
45 46 46 47 47 47 47 48 48 48 48 49 49 49 50 50 50 48 43 48 51 52 44 37 42 42 42 43 43 45 45 45 45 43 40 41 41 39 35 33 37 37 37 39 39 40 38 34 33 34 36 35 27 25
44 46 46 46 46 46 46 46 47 47 48 48 48 49 49 49 49 45 41 46 50 50 40 37 35 39 38 41 43 42 44 45 44 42 40 40 38 40 36 32 35 34 36 34 35 36 31 33 34 35 29 25 25 24
44 45 46 46 45 45 45 45 46 46 46 47 47 47 48 48 47 43 46 48 49 43 40 33 33 36 38 39 39 42 41 41 42 40 41 38 37 38 33 34 30 28 27 26 26 30 34 34 31 25 24 23 25 27
45 45 45 45 44 44 44 44 45 45 46 46 46 45 44 42 39 41 46 47 47 41 32 31 31 31 37 38 38 39 39 34 40 38 37 33 34 32 31 27 27 26 26 31 33 32 28 25 25 23 23 24 29 32
45 45 44 44 44 44 44 45 45 45 45 44 42 39 36 41 44 45 42 38 36 36 35 32 36 33 36 36 34 35 36 32 30 33 34 33 30 30 29 28 27 30 31 28 26 25 25 24 24 24 25 29 33 34
45 44 43 43 43 43 43 43 44 44 41 40 38 37 42 43 42 38 33 32 33 31 32 34 36 33 38 33 32 35 32 33 28 24 29 30 27 26 26 28 29 26 25 24 24 24 24 24 24 26 29 31 34 34
43 43 42 42 42 42 41 41 39 39 38 39 40 42 41 38 35 31 30 32 31 28 32 33 33 33 36 38 35 35 31 32 26 32 28 25 23 25 25 24 23 23 24 24 25 25 24 24 26 32 33 32 34 32
41 41 41 41 41 41 40 39 39 40 40 39 36 34 34 33 26 23 22 27 29 34 33 33 31 32 34 34 31 30 28 28 32 28 26 26 27 22 19 19 20 20 25 27 26 27 27 26 30 33 34 35 31 30
40 41 41 41 41 41 40 41 40 38 35 33 30 25 27 25 23 23 24 31 31 33 33 32 30 29 33 30 30 26 28 29 25 20 17 20 20 19 21 22 24 23 26 27 28 29 28 29 32 32 29 28 24 25
39 40 40 39 40 40 42 40 38 36 34 31 30 22 24 27 31 32 33 33 33 33 33 30 30 28 26 26 28 26 24 21 20 15 19 22 24 24 24 24 23 27 30 30 29 30 28 29 31 30 27 26 28 26
38 38 36 38 38 39 41 38 35 35 33 31 30 26 28 28 28 29 29 30 34 33 32 30 25 23 20 23 22 20 16 7 13 19 23 21 20 22 23 25 27 27 29 30 30 30 29 31 29 31 30 28 27 28
36 33 37 38 38 39 37 31 32 30 30 27 25 27 30 29 29 29 31 30 31 30 22 24 20 16 13 16 15 14 12 19 22 23 23 21 22 24 26 26 26 28 30 30 31 32 30 30 31 29 25 27 28 29
32 35 37 38 37 35 32 33 32 29 24 24 22 25 26 27 28 29 30 31 31 24 20 19 16 12 13 6 9 16 18 20 23 24 22 20 22 25 26 26 28 28 30 31 34 34 32 30 28 23 25 27 28 29
32 33 37 37 35 32 29 31 30 23 22 22 24 25 26 28 30 29 30 32 29 26 24 23 19 15 16 16 19 22 25 27 24 22 22 23 24 26 27 27 30 31 31 32 33 32 31 30 28 20 21 25 26 28
35 36 37 37 33 30 28 29 30 24 21 21 22 23 24 25 28 32 31 31 28 27 23 21 17 18 20 20 20 21 21 23 22 23 23 23 23 24 25 27 28 30 32 33 32 31 30 29 24 24 26 28 30 30
34 35 36 34 32 31 27 25 24 24 20 20 21 22 22 25 27 28 28 29 27 23 19 19 22 24 24 25 24 24 23 24 23 24 24 25 26 27 28 28 29 31 32 31 30 30 31 30 27 28 30 31 30 29
35 35 36 36 32 31 28 26 22 25 23 22 24 23 21 22 24 26 25 24 23 22 22 22 22 22 22 21 22 23 24 24 24 25 25 26 27 28 29 29 30 31 31 31 31 32 31 29 30 30 30 29 29 28
37 36 33 32 28 27 26 28 24 23 21 21 22 20 19 20 21 24 20 19 20 21 19 19 20 22 21 21 22 23 24 25 25 26 28 29 29 29 30 30 32 31 31 32 32 31 32 30 28 28 30 29 27 26
37 31 28 27 27 24 28 25 24 22 22 22 18 15 14 16 23 22 16 18 21 20 20 18 19 19 19 20 22 24 25 27 27 28 30 30 28 28 30 32 33 33 32 30 32 30 30 28 28 28 27 27 26 25
26 25 27 23 25 23 20 20 20 19 17 18 15 13 15 23 16 13 13 16 21 22 23 23 22 20 21 23 26 27 29 30 32 31 29 31 32 31 32 33 33 31 32 30 29 30 29 29 28 28 28 26 25 23
21 25 22 19 21 20 17 14 15 14 15 13 15 15 24 17 15 13 10 17 24 24 28 31 29 24 23 24 24 26 29 31 31 28 29 32 33 31 31 30 28 29 31 32 31 30 29 28 28 26 25 24 23 24
20 19 23 22 20 19 20 22 20 16 14 12 12 15 18 14 10 10 13 16 20 24 26 29 28 27 27 27 29 30 31 30 29 28 31 30 28 29 32 32 29 31 32 32 31 30 29 28 28 27 26 27 27 26
21 19 18 23 22 20 18 16 15 14 13 13 14 13 18 15 10 12 20 24 31 30 31 31 32 31 30 30 31 31 29 29 29 28 29 29 30 31 31 32 31 30 32 31 30 31 31 31 29 28 27 24 25 26
19 20 21 18 21 21 20 17 16 16 15 16 17 17 17 18 22 24 25 29 30 30 29 29 30 31 30 30 30 31 30 28 27 26 26 27 30 30 31 30 30 30 30 29 29 30 31 31 30 28 26 25 25 25
20 24 21 19 19 18 19 23 22 25 25 25 25 24 23 24 27 31 29 28 27 28 29 29 28 27 26 26 27 29 31 29 29 27 26 28 29 33 31 30 30 30 30 29 27 25 24 24 23 23 23 22 22 21
24 25 22 21 20 23 24 27 29 28 27 25 26 26 26 27 30 27 25 25 24 25 25 25 26 26 26 25 26 26 27 29 28 28 28 29 30 31 30 30 29 29 29 27 26 25 25 24 24 22 21 19 19 18
25 24 21 20 22 27 26 25 26 26 26 26 24 26 26 24 22 25 21 21 22 23 23 22 23 24 27 28 28 28 27 27 27 28 28 29 29 29 29 30 29 29 28 26 25 24 22 22 21 21 19 17 17 17
23 23 23 23 22 23 25 24 23 22 23 22 22 23 24 23 23 19 19 19 19 19 19 20 21 24 24 24 25 25 24 23 22 21 22 23 25 28 29 29 28 27 25 24 24 23 22 20 20 20 19 19 17 16

GFSWCAN_sfc_30mbdewp_006.txt.gz
Dewpoint
51 51 51 52 52 52 52 52 52 52 52 52 52 52 51 51 51 52 52 55 52 47 46 45 45 42 40 40 40 41 39 41 41 37 34 33 33 33 30 29 28 27 29 30 32 29 26 31 33 34 35 39 39 41
50 50 50 50 51 51 51 51 51 51 52 52 52 51 51 51 50 51 51 55 55 51 47 52 50 49 45 43 43 42 40 39 42 39 38 37 34 36 33 29 30 28 30 29 30 29 31 33 34 37 38 39 40 40
47 48 49 49 50 50 50 51 51 51 51 51 51 51 51 51 50 51 52 55 53 47 48 48 46 48 49 48 48 44 45 43 41 42 41 39 35 38 32 34 34 35 34 33 33 32 33 35 37 38 39 39 40 40
47 47 47 48 48 49 49 49 50 50 50 50 50 50 50 50 50 51 51 53 52 45 41 43 48 47 48 48 48 48 47 46 46 45 42 39 36 39 35 34 34 35 35 34 34 35 35 37 38 38 39 39 40 39
45 46 47 47 47 47 48 48 49 49 50 50 50 50 50 50 50 51 52 53 54 48 41 40 43 45 46 46 45 46 46 46 46 44 41 38 40 38 39 37 36 36 35 34 33 35 38 37 38 38 37 40 38 30
45 46 47 47 46 46 47 47 48 48 49 49 49 50 50 50 50 49 44 49 52 52 44 38 43 42 43 43 43 44 46 46 46 43 41 41 42 38 35 33 34 35 34 36 35 35 35 36 35 37 38 36 27 24
44 46 46 46 46 46 46 47 47 47 48 48 48 49 49 49 49 45 42 46 50 51 41 38 38 40 40 42 42 42 44 44 45 44 42 41 39 41 36 33 36 36 35 34 34 34 35 34 35 35 29 25 25 28
44 46 46 45 45 45 45 46 47 47 47 48 48 48 48 48 47 43 46 48 49 44 40 36 34 36 39 40 40 42 42 41 42 41 40 38 38 38 34 34 34 32 30 29 32 33 31 28 27 25 24 25 26 29
44 45 46 45 45 44 44 45 46 46 46 46 46 45 44 42 40 42 47 46 46 40 35 32 32 32 38 39 38 38 39 34 39 37 37 37 35 33 34 32 30 30 29 32 31 27 26 25 24 24 24 25 28 31
44 45 45 44 44 44 44 44 45 46 45 44 43 39 36 41 46 45 41 37 37 36 35 31 37 34 36 37 35 35 36 32 30 34 36 35 33 34 33 31 29 30 26 25 25 25 24 24 24 24 24 26 32 32
45 45 44 44 44 44 44 45 45 45 43 41 39 37 42 43 43 39 33 31 32 30 32 34 36 34 38 33 33 35 32 33 27 29 29 29 28 28 28 28 27 24 24 23 23 22 23 24 24 25 27 32 33 33
45 44 44 43 43 43 43 44 44 40 41 40 40 42 42 39 35 31 30 32 31 29 35 34 34 35 37 38 34 34 30 31 25 31 29 25 23 24 26 25 22 21 20 21 23 21 20 21 26 29 31 34 33 33
44 43 43 43 43 42 41 39 38 40 40 39 37 34 34 33 27 26 24 28 29 33 33 34 32 34 35 35 32 30 28 25 33 28 24 25 26 26 22 20 21 22 27 26 22 21 24 27 30 30 30 34 33 32
42 42 42 41 41 41 40 39 40 39 36 34 31 24 28 26 25 25 27 30 32 33 34 33 31 32 33 29 30 25 27 30 25 22 20 23 23 23 24 25 25 24 26 25 27 30 31 31 31 31 32 32 29 24
41 41 41 41 41 41 40 39 37 36 36 30 30 22 26 27 33 32 33 33 34 34 32 32 30 29 27 26 27 26 23 20 21 16 19 26 26 25 24 25 23 27 27 27 27 28 31 32 32 31 32 29 27 27
41 40 38 41 41 42 39 37 35 36 34 32 30 27 30 29 29 30 30 31 35 33 32 31 26 22 20 23 21 20 19 12 12 22 26 24 25 25 23 22 27 28 28 28 27 30 31 32 32 32 32 32 30 28
36 34 39 38 39 39 38 33 34 30 31 28 26 30 32 30 30 30 30 32 34 29 24 24 20 18 17 18 15 15 14 19 23 25 24 25 25 25 23 24 26 27 28 28 29 31 32 34 34 32 30 31 28 29
34 37 38 39 37 35 33 34 32 28 26 25 23 26 27 28 28 28 30 32 31 27 21 19 16 13 11 7 10 16 21 24 24 24 24 23 22 23 24 25 24 24 27 29 30 33 33 33 32 31 31 28 29 29
35 35 38 38 34 32 30 31 31 24 25 24 24 25 27 30 32 30 32 33 31 28 25 24 19 17 17 18 19 22 24 25 24 23 23 24 24 24 24 23 25 27 27 28 31 31 31 33 32 32 29 26 27 29
35 37 38 37 35 31 29 29 30 27 23 25 24 24 25 26 29 32 32 31 29 27 24 21 18 20 21 22 22 22 22 23 24 24 23 24 25 25 25 26 26 27 27 28 30 31 32 31 31 31 27 28 30 30
34 35 37 36 35 33 29 25 23 23 22 19 20 22 23 26 27 29 28 31 27 22 19 20 21 22 23 24 25 25 25 25 25 25 25 25 25 26 26 26 27 28 29 29 30 31 31 30 32 30 31 31 32 31
35 36 35 36 32 31 29 26 22 25 22 21 21 23 22 23 25 27 27 26 24 24 24 23 23 23 24 24 24 25 26 25 24 24 25 26 26 27 27 29 29 30 31 32 32 31 32 32 33 32 31 31 29 29
35 35 33 32 27 26 23 27 23 22 21 21 22 20 20 21 22 21 20 21 23 24 24 24 23 24 24 23 23 22 22 22 24 26 28 29 29 30 30 30 30 30 30 31 33 32 32 33 32 30 29 30 28 27
37 31 27 26 26 21 28 24 25 22 21 19 18 16 16 18 20 20 18 20 21 23 22 22 23 22 22 22 22 22 23 25 27 29 30 30 30 30 30 31 33 33 32 33 33 33 32 31 30 29 29 28 27 26
26 26 27 23 26 23 21 21 21 19 17 17 17 16 15 20 17 14 15 16 20 22 24 25 25 24 23 23 24 25 27 27 28 30 31 31 31 30 29 31 32 33 34 32 31 31 31 30 29 28 28 28 26 26
21 25 23 20 22 20 18 14 15 17 17 16 16 16 19 17 15 16 12 17 23 24 28 30 29 24 23 22 22 23 27 32 31 30 29 30 31 30 30 30 30 32 34 33 31 30 30 30 29 28 28 27 25 23
21 22 25 23 20 20 20 20 21 18 16 15 14 15 15 16 14 10 13 18 20 23 26 27 27 24 24 25 27 31 33 31 30 29 30 29 29 30 31 30 30 33 34 32 32 31 31 30 29 27 26 27 26 25
22 21 20 22 21 21 21 19 17 16 15 16 15 13 15 15 11 14 19 27 31 31 31 31 32 31 31 32 32 31 31 30 30 29 30 29 30 31 32 31 31 30 34 33 32 32 31 30 28 27 27 25 26 26
22 21 21 18 21 21 20 19 19 18 17 16 15 15 16 18 21 24 25 27 32 32 30 29 30 33 33 31 30 30 30 31 28 26 24 25 26 30 32 31 30 30 31 31 30 31 31 32 30 30 29 26 28 28
20 24 19 18 18 18 19 21 20 23 24 24 25 27 27 27 28 29 30 32 31 30 31 31 30 28 26 26 27 27 29 32 31 28 25 25 26 29 30 31 31 31 31 30 29 27 28 29 28 27 26 25 25 24
21 22 21 22 21 22 24 26 29 29 29 27 27 26 25 26 29 32 31 31 30 28 26 26 26 28 27 27 27 26 26 29 28 27 27 28 29 30 31 31 30 30 30 29 27 26 26 26 26 25 24 23 23 22
25 22 21 19 20 24 28 28 26 25 26 26 27 27 28 28 25 27 23 23 23 23 25 24 24 25 26 27 28 28 27 26 24 24 24 27 29 30 30 30 30 29 29 28 27 26 25 24 24 23 22 20 20 20
22 23 20 20 20 19 21 25 25 21 22 23 23 24 25 26 23 21 21 21 21 20 20 21 22 25 26 25 26 26 25 23 22 20 20 20 19 21 24 27 29 28 27 26 25 24 23 22 21 22 22 21 19 18

GFSWCAN_sfc_30mbdewp_009.txt.gz
Dewpoint
51 51 52 52 52 52 52 52 52 52 52 52 52 52 52 51 51 51 52 55 52 47 47 46 46 44 44 42 39 41 38 39 40 36 34 32 31 32 31 29 26 27 27 29 30 28 24 33 31 29 32 37 35 38
50 50 50 51 51 51 52 52 52 52 52 52 52 52 52 51 51 52 50 55 55 50 48 52 51 51 49 47 45 43 40 41 40 37 36 34 34 36 32 29 31 28 28 26 29 27 32 33 32 34 35 36 39 39
48 49 50 50 50 50 50 51 51 52 52 51 52 52 52 51 51 51 52 54 51 47 46 47 44 47 50 49 49 43 44 43 43 41 39 37 35 37 32 33 33 34 35 32 31 32 32 34 35 36 37 39 41 41
47 47 48 49 49 49 50 50 50 50 51 51 51 51 51 51 51 51 50 53 51 45 42 41 47 46 48 48 48 49 46 47 47 46 42 39 37 40 36 36 34 36 37 34 34 34 34 35 35 37 40 42 41 37
46 47 47 47 47 48 48 49 49 49 50 50 50 50 50 50 50 51 51 52 53 48 41 40 44 45 46 47 46 47 47 47 46 42 41 38 39 38 38 37 36 37 35 34 32 34 36 36 37 38 38 35 33 32
46 46 46 46 46 46 47 47 48 48 49 49 50 50 50 50 50 49 44 50 53 53 45 39 42 42 43 43 43 44 46 46 45 42 40 41 41 38 35 33 35 35 36 37 36 37 37 38 37 38 35 30 28 30
45 46 46 45 46 46 46 47 47 47 48 48 49 49 49 49 49 46 42 45 50 51 43 39 37 40 40 41 43 43 44 44 44 43 41 41 40 41 36 34 36 36 37 37 37 37 36 34 29 26 26 26 27 33
44 46 46 45 45 45 46 46 47 47 47 48 48 48 48 48 47 44 46 48 49 44 41 38 35 36 40 39 39 41 40 40 42 42 39 39 39 39 34 36 36 36 35 34 33 31 29 27 26 25 25 26 26 32
44 46 46 45 44 44 45 46 46 47 47 47 47 47 44 42 40 42 46 46 45 41 37 33 32 33 39 39 38 38 38 35 38 36 37 38 35 33 36 35 34 33 32 28 27 27 27 27 26 26 25 25 29 32
44 44 45 45 44 44 44 45 46 45 45 45 44 39 36 40 46 45 41 37 37 35 34 32 36 34 37 37 35 34 35 32 30 32 37 35 33 34 33 33 33 26 26 27 26 25 24 23 24 24 25 27 31 32
44 45 45 43 43 44 44 45 45 44 42 42 37 37 42 45 42 38 32 32 32 30 32 33 35 35 39 34 32 34 31 32 27 28 32 29 29 29 30 30 27 25 26 25 25 22 20 20 21 23 26 29 30 32
44 45 44 43 44 44 45 45 45 41 41 41 41 43 42 39 35 31 29 31 30 28 33 32 33 36 36 39 33 33 29 30 23 30 28 24 27 26 26 24 25 25 25 25 23 22 22 23 24 27 29 29 31 33
44 44 44 44 43 43 44 41 38 41 41 40 35 34 33 33 27 25 24 28 28 33 34 34 32 33 35 34 32 29 27 25 31 27 23 24 27 26 26 26 26 27 25 24 24 25 26 27 29 29 30 30 31 31
44 44 43 43 42 42 41 38 40 40 38 32 29 21 26 24 25 27 28 30 32 34 33 33 32 31 31 28 28 24 26 29 25 21 22 25 27 27 26 26 25 23 24 24 25 27 27 27 28 29 30 31 31 29
43 43 42 42 41 40 39 39 38 39 35 28 28 20 25 30 31 31 33 32 33 34 33 29 29 29 28 26 27 25 22 19 21 19 24 25 26 25 25 22 21 21 24 26 27 27 27 27 28 30 31 31 30 28
42 40 40 42 42 40 39 37 38 37 33 30 28 26 28 28 28 29 30 32 35 31 30 30 26 22 21 23 22 20 19 17 20 24 25 25 25 25 24 25 23 24 27 26 26 26 27 28 29 31 32 31 30 29
36 36 41 41 40 38 38 37 34 29 28 26 26 29 31 29 29 30 29 30 33 28 24 25 19 15 21 19 19 21 18 18 24 23 24 23 23 23 24 23 23 25 25 23 23 25 28 29 31 31 29 30 31 30
36 40 40 38 36 38 35 35 30 27 24 26 24 25 26 27 27 27 28 31 30 28 23 20 22 16 12 10 10 13 20 22 23 24 24 23 24 24 24 24 24 24 24 24 25 27 28 31 30 29 30 31 30 29
38 39 38 37 37 33 28 29 32 23 24 26 26 28 28 29 29 29 30 30 32 30 25 23 18 17 15 16 14 16 20 23 24 24 24 24 24 24 25 26 26 26 26 26 26 26 29 30 30 30 32 30 29 29
38 39 37 37 37 30 29 29 31 28 25 25 25 24 25 26 28 31 31 31 30 29 25 23 21 19 19 21 23 24 24 24 23 24 24 24 26 26 25 25 26 26 27 27 27 28 30 30 31 31 31 31 30 29
34 37 37 37 35 34 29 26 24 24 24 22 25 25 24 26 27 28 28 28 26 24 22 21 19 20 22 23 24 24 24 24 24 25 26 25 24 25 26 27 28 28 28 29 29 30 31 31 32 32 31 31 31 31
36 36 35 36 31 29 28 27 24 25 24 22 21 23 22 22 24 26 29 27 25 23 22 20 21 22 23 24 24 25 26 26 26 25 24 24 24 26 28 29 30 30 29 29 29 31 31 32 32 31 31 31 30 29
35 34 32 31 26 25 21 28 24 24 22 21 22 20 20 21 22 27 23 24 24 24 24 24 25 25 25 26 26 25 25 24 23 23 24 27 29 29 30 30 31 31 30 30 32 31 31 32 31 30 30 29 28 28
36 30 26 25 25 21 26 24 24 23 21 20 20 18 19 20 22 21 19 19 20 22 22 23 24 24 24 24 24 24 25 25 25 25 27 29 30 29 29 30 30 30 32 32 32 32 32 31 31 29 29 29 27 26
25 25 26 23 26 21 22 22 21 20 18 19 18 16 17 18 17 16 14 15 17 20 22 24 25 26 25 24 25 25 26 27 25 26 30 30 28 28 27 29 31 32 32 32 31 31 31 31 30 29 28 27 27 27
21 25 23 21 22 20 20 16 19 18 17 16 16 17 18 17 16 15 16 15 18 22 24 25 24 25 25 26 24 24 25 31 30 28 28 28 28 28 27 26 27 28 30 33 31 30 30 29 29 28 27 28 28 27
21 22 25 26 24 22 20 20 19 17 16 16 17 17 16 16 15 14 14 16 21 24 27 29 29 26 23 24 26 30 32 31 30 28 29 28 28 28 28 27 26 29 31 32 31 30 29 29 29 28 28 28 27 24
23 22 21 23 21 22 20 19 18 17 17 18 16 13 13 13 12 15 17 26 26 27 26 26 27 27 28 29 31 30 28 28 28 29 30 29 28 28 30 30 31 32 30 31 31 30 31 31 31 29 27 26 26 26
24 22 21 20 22 20 20 19 19 19 18 16 14 14 15 17 18 21 25 28 30 29 28 28 28 31 31 31 29 27 27 27 28 26 24 25 23 26 28 28 30 31 30 30 31 31 31 31 31 30 28 27 26 27
22 24 21 18 17 17 18 21 18 20 22 23 23 23 24 25 26 28 28 28 28 29 30 30 31 29 27 26 25 26 28 30 31 28 24 22 24 26 28 29 30 30 31 30 29 27 28 29 29 28 27 26 25 24
21 23 20 20 18 19 21 22 25 25 26 25 26 25 24 25 27 28 29 28 29 29 28 27 27 28 28 27 26 25 24 26 25 24 23 25 28 29 28 28 28 29 28 27 27 26 26 26 26 25 24 23 23 22
22 20 20 18 18 21 25 23 22 22 23 24 25 26 26 26 25 24 21 22 24 24 24 24 24 23 25 25 27 25 24 21 20 20 19 19 20 22 25 28 29 28 27 26 26 25 24 24 24 23 22 21 21 19
21 21 21 21 22 21 19 19 20 20 21 21 22 24 25 24 23 19 22 22 21 19 18 19 20 21 25 25 25 24 21 20 20 20 19 18 17 17 18 18 21 23 25 25 24 23 22 22 20 21 20 17 15 12

GFSWCAN_sfc_30mbdewp_012.txt.gz
Dewpoint
51 51 51 51 51 51 51 52 52 52 52 51 52 52 52 51 51 51 51 54 49 45 46 47 46 43 43 41 38 39 38 38 38 35 33 31 30 30 31 29 27 25 25 27 28 27 23 33 32 29 30 35 35 36
51 50 50 51 51 51 51 52 52 52 52 52 52 52 52 51 51 52 49 54 53 48 45 51 51 51 49 46 43 42 39 38 39 36 35 32 31 32 30 28 32 28 28 26 27 26 30 33 33 34 36 35 37 40
50 50 50 50 51 51 51 51 52 52 52 52 52 52 52 52 51 51 50 53 49 46 45 45 43 46 50 50 49 43 41 43 42 40 36 35 33 35 32 32 34 34 34 31 31 31 31 33 35 36 37 40 41 39
48 48 49 49 49 50 50 50 50 50 51 51 51 51 51 51 51 51 50 52 48 45 42 41 46 45 48 48 47 48 46 46 46 44 40 39 35 39 36 37 36 36 38 35 34 35 36 35 36 38 40 37 36 35
47 47 47 48 48 49 49 49 50 50 50 50 50 51 51 51 51 50 51 52 51 47 41 40 43 44 45 47 47 48 47 46 44 41 40 39 39 38 37 37 36 37 35 34 33 35 35 36 38 39 37 35 35 32
46 46 46 46 46 47 48 48 49 49 49 50 50 50 50 50 50 49 45 49 52 52 45 39 43 42 43 44 44 44 45 46 45 42 40 40 40 38 36 34 34 36 37 38 37 40 39 38 36 35 34 31 30 29
46 46 45 46 46 46 46 47 47 48 48 49 49 49 49 49 50 46 43 45 51 52 43 39 38 40 40 40 42 42 43 43 44 42 41 40 40 41 36 34 36 37 37 38 38 39 37 36 33 33 33 31 28 31
45 45 45 45 45 46 45 46 47 47 47 48 48 49 49 48 47 45 46 48 50 46 42 38 36 36 39 37 38 40 39 39 41 41 39 39 39 39 35 35 37 37 37 37 35 35 35 28 29 28 28 27 26 28
45 45 45 44 44 45 46 46 47 47 47 47 48 47 44 43 41 42 46 45 44 43 38 35 32 33 40 39 38 37 37 36 37 36 37 38 35 33 35 36 36 37 34 30 28 28 28 27 26 25 23 24 27 29
45 45 45 44 44 44 46 46 46 46 47 46 43 38 36 40 46 45 40 39 38 35 35 32 35 34 38 37 35 35 34 32 30 33 36 35 32 34 34 35 35 28 28 27 29 28 26 21 21 19 22 25 28 29
44 45 44 43 43 44 45 45 44 43 43 41 37 37 42 46 41 37 33 34 32 31 32 32 34 34 38 34 34 34 32 31 26 27 30 28 28 30 30 28 29 29 29 28 28 26 22 22 21 22 24 27 29 29
44 45 43 43 44 44 45 45 43 41 41 41 40 42 41 38 34 32 30 30 29 27 32 31 32 36 35 38 33 31 29 29 23 27 28 23 25 27 27 27 27 26 26 24 24 24 24 24 25 25 26 28 29 30
44 44 44 43 43 44 45 42 41 41 41 37 34 34 31 32 27 25 24 26 26 31 34 34 32 34 34 33 31 29 26 24 29 25 21 23 27 27 28 28 27 26 24 24 25 28 27 26 27 26 27 28 29 29
44 44 44 43 43 43 39 40 40 39 35 28 25 24 26 23 25 26 27 29 32 33 34 33 32 30 30 27 27 24 24 28 24 22 22 23 25 25 24 24 21 21 21 21 22 25 26 26 25 25 25 27 29 30
44 44 43 42 42 40 39 39 38 39 33 25 25 16 23 28 30 31 32 32 33 34 30 28 28 27 27 25 26 24 22 19 20 19 22 25 25 23 22 22 23 23 21 22 24 25 25 24 23 24 26 27 30 30
43 41 41 41 40 39 38 39 38 33 32 27 27 25 28 28 27 29 31 30 33 31 29 27 24 20 20 21 21 19 19 17 18 22 23 24 23 23 24 24 25 24 24 24 25 25 24 23 23 25 27 31 31 30
37 38 42 41 40 39 39 37 31 28 25 24 24 28 28 27 26 28 29 31 33 27 18 24 15 6 19 18 19 21 18 17 23 22 24 25 23 23 24 24 24 24 25 25 25 25 25 25 26 28 29 30 29 30
38 42 41 39 38 37 36 33 28 24 21 25 24 24 27 27 28 28 29 32 30 26 24 19 22 17 15 14 14 15 19 22 23 23 24 24 24 24 24 24 25 26 26 26 26 26 26 26 26 27 30 30 31 30
40 39 38 38 36 32 29 32 30 21 21 25 26 26 25 25 26 27 27 29 31 30 24 21 17 16 13 15 11 11 15 21 23 22 22 24 25 25 25 26 26 26 26 26 26 26 27 27 28 29 30 31 30 29
39 39 38 38 37 29 27 27 30 26 23 24 24 25 25 24 26 28 29 30 30 28 26 24 21 18 17 18 21 22 22 22 23 22 22 23 25 26 26 26 25 25 26 27 28 27 28 28 29 30 31 31 29 28
37 39 38 37 33 31 27 26 25 25 24 22 24 24 23 25 26 26 27 30 27 25 22 24 23 22 23 22 23 23 23 23 23 24 24 24 26 25 24 25 27 28 28 28 28 30 29 29 30 32 31 30 31 31
36 37 35 35 29 27 26 26 22 24 22 22 21 23 22 21 22 25 27 27 25 23 22 21 21 22 22 22 22 24 25 25 26 27 27 26 25 23 24 27 28 29 29 29 29 29 30 32 32 32 31 30 31 29
33 32 31 29 24 23 19 27 23 23 22 20 21 20 20 20 21 26 24 25 23 24 24 24 24 24 24 25 26 26 27 26 25 25 25 24 24 26 28 29 28 28 28 29 30 31 31 32 32 31 31 29 28 28
33 28 24 23 20 19 22 22 24 23 20 20 20 19 18 19 21 22 19 18 19 21 22 22 24 24 25 25 25 25 25 25 25 25 25 25 26 28 28 27 27 27 29 30 31 31 31 32 31 29 29 28 27 27
22 23 23 20 22 21 20 19 19 20 19 18 17 15 15 19 16 17 15 14 15 16 19 21 23 24 23 24 25 25 26 26 24 23 25 29 28 26 26 27 27 27 28 29 29 31 31 31 30 29 29 28 28 27
20 23 22 20 21 19 18 18 18 18 17 16 17 16 17 15 15 14 15 14 13 14 15 17 20 22 24 27 26 24 24 27 29 28 28 28 28 27 26 25 25 26 28 31 30 29 30 29 29 28 27 27 27 27
20 20 24 24 22 22 19 18 17 16 16 14 15 15 15 15 15 14 16 17 15 18 24 24 25 25 24 23 23 24 27 30 29 28 29 29 28 28 27 26 26 27 30 30 30 29 29 29 28 27 27 27 28 28
22 20 20 22 23 22 18 17 17 16 15 17 16 14 14 15 12 14 15 22 23 25 26 26 26 26 25 26 28 29 28 28 27 27 27 27 26 27 27 29 29 29 29 30 30 30 30 29 29 29 29 28 28 28
23 23 22 21 20 20 23 21 18 18 19 17 13 12 13 15 16 16 19 24 27 28 27 26 27 28 30 30 30 30 29 27 26 24 23 24 22 22 23 27 28 29 29 29 30 30 30 29 29 30 30 29 29 28
21 23 22 19 20 20 19 19 18 17 19 20 20 20 20 21 22 25 25 25 25 26 27 28 29 30 29 28 26 26 28 29 28 25 23 21 22 24 28 27 26 28 28 28 27 26 26 27 27 28 26 26 26 25
20 21 19 17 15 16 17 18 19 21 21 21 22 22 22 23 23 22 22 23 25 27 27 26 26 26 25 24 24 24 24 21 20 20 19 19 20 22 23 25 27 26 25 25 24 24 24 25 24 24 23 23 22 22
21 20 18 18 18 19 20 21 21 21 20 20 21 21 22 24 24 18 18 18 19 18 18 18 18 19 21 23 23 21 20 18 18 17 17 17 18 18 18 19 21 23 25 24 23 23 22 22 22 22 22 21 19 17
18 17 17 18 18 19 19 19 18 17 17 17 17 18 20 21 20 16 17 17 15 14 14 15 16 18 19 21 21 19 19 19 19 19 19 17 15 13 13 14 16 19 22 20 19 18 16 15 14 14 13 12 10 9

GFSWCAN_sfc_30mbdewp_015.txt.gz
Dewpoint
51 50 51 51 51 51 51 52 52 51 51 52 52 52 52 51 51 51 52 53 47 42 45 47 46 42 42 40 37 39 39 38 38 35 32 30 28 29 31 28 26 25 24 25 26 25 23 30 32 29 31 33 35 36
51 50 50 51 51 51 51 51 51 52 52 51 51 52 52 52 51 51 50 53 51 46 44 51 50 50 48 44 41 40 39 37 38 36 34 31 31 30 29 28 30 28 28 26 27 26 30 32 33 34 35 35 36 40
50 50 50 50 50 51 51 51 51 51 52 52 52 52 52 52 51 51 50 51 48 44 44 44 43 46 50 50 47 43 40 42 40 39 36 35 34 33 31 31 32 34 35 32 32 32 31 34 36 36 37 39 40 39
48 49 50 49 50 50 50 51 51 51 51 52 52 52 52 52 51 51 49 50 47 44 41 40 44 45 48 50 49 47 45 45 45 41 38 37 36 38 35 36 36 37 38 36 35 36 37 36 37 39 41 40 37 37
47 47 48 49 49 50 50 50 50 51 51 51 51 51 51 51 51 50 50 52 51 47 41 40 43 44 45 47 46 47 46 45 44 41 40 38 38 38 38 36 36 38 36 34 34 36 36 36 41 42 37 36 35 33
46 46 46 47 48 48 48 49 49 49 50 50 50 50 50 50 51 50 46 50 51 51 45 40 43 43 43 44 45 46 47 46 44 41 39 39 40 38 35 33 35 36 38 38 37 38 39 41 38 37 34 32 33 33
45 45 46 46 46 47 47 48 48 48 49 49 49 50 50 50 50 47 44 45 51 51 44 40 39 39 39 40 41 42 43 43 43 41 40 39 39 40 37 34 36 37 38 38 39 39 38 35 34 35 31 33 33 32
45 45 45 45 46 46 46 47 47 47 48 49 49 49 49 49 48 46 46 48 50 47 43 39 36 37 39 37 38 39 39 39 40 41 39 38 39 39 35 37 37 37 37 37 36 35 34 34 30 24 23 23 23 27
45 44 44 44 45 45 46 47 47 47 47 48 48 47 45 44 42 42 46 46 45 44 39 35 34 34 40 38 37 37 37 36 37 36 37 38 36 34 36 36 35 36 35 33 28 28 28 23 21 22 22 19 20 23
45 45 45 44 44 46 45 47 47 47 47 46 43 40 37 40 46 45 41 40 40 36 36 33 35 35 38 37 36 36 34 33 31 33 36 34 32 34 29 31 30 29 30 30 29 31 27 22 23 23 22 21 24 26
45 45 44 44 44 45 44 44 46 46 44 39 38 36 41 45 40 37 34 34 33 32 32 33 34 34 38 35 34 35 32 31 26 26 30 28 27 26 27 28 29 28 29 29 29 28 27 23 22 24 26 26 26 27
44 45 43 43 44 45 45 43 42 42 41 39 41 42 41 37 34 33 31 31 30 28 32 31 33 36 35 37 34 31 29 29 23 27 28 24 25 27 29 30 29 27 27 26 26 25 25 26 27 28 27 25 26 27
44 44 43 44 44 45 43 41 42 42 38 36 35 35 33 31 28 27 25 26 27 30 33 33 32 33 34 34 31 29 26 23 29 26 23 22 27 28 26 27 26 25 24 22 20 22 24 25 27 27 26 25 25 25
44 44 43 43 44 43 40 40 39 36 31 25 26 27 26 24 25 25 25 26 31 33 33 33 31 29 29 27 27 23 23 26 23 20 20 25 25 25 24 23 22 21 22 21 21 22 23 24 24 24 24 23 23 24
44 44 43 43 43 39 39 39 38 36 28 22 20 15 23 26 29 31 32 32 33 34 31 30 29 27 26 25 25 23 22 19 19 19 22 24 23 22 22 23 23 23 23 23 24 24 24 24 24 24 24 24 24 25
44 43 41 42 40 39 39 37 35 31 30 25 25 24 27 27 27 29 31 31 33 30 28 25 22 20 22 21 20 19 18 15 17 21 22 23 23 23 23 23 23 24 24 25 25 25 25 25 24 25 25 25 26 27
39 39 42 40 40 38 37 33 29 28 24 22 21 27 26 26 25 27 29 30 32 26 14 22 12 6 18 18 17 20 18 18 21 19 22 24 24 23 23 24 24 25 25 25 26 26 26 26 26 25 25 26 27 28
38 41 40 39 38 38 36 31 26 22 20 24 23 23 27 26 28 29 29 31 31 26 24 20 20 14 14 13 15 17 20 22 22 22 23 23 23 24 24 24 25 25 26 26 25 25 26 26 26 26 27 28 29 30
41 40 39 37 35 32 30 31 27 18 19 24 25 25 24 24 25 26 26 30 31 29 25 21 17 15 13 16 11 10 13 19 20 20 21 23 24 24 24 25 25 26 26 25 26 27 28 28 28 28 29 29 29 31
40 39 38 37 33 28 25 28 29 24 21 23 24 25 25 24 26 26 27 28 29 30 27 24 20 18 17 17 18 19 21 22 22 21 21 22 24 25 25 26 26 26 26 27 27 27 28 28 29 29 30 31 30 29
38 38 37 35 32 28 26 25 25 24 24 22 24 23 22 24 25 25 26 29 28 26 24 25 23 23 23 23 24 23 23 23 22 22 22 23 25 26 26 26 25 26 27 27 27 27 28 29 29 31 31 31 31 30
37 38 34 33 27 24 25 25 22 23 21 21 21 23 21 21 22 24 25 25 26 23 23 21 21 22 22 22 22 23 23 23 24 25 26 26 25 25 24 24 25 28 27 27 26 26 28 30 30 32 31 31 31 29
33 31 29 27 22 19 19 25 22 23 21 21 20 20 19 20 20 25 24 25 24 24 23 24 24 24 24 24 24 25 25 26 26 26 26 25 25 25 24 25 27 26 25 26 27 27 29 30 31 31 31 31 29 28
31 25 22 21 18 18 21 21 23 22 20 20 19 17 17 18 21 22 20 20 21 23 23 22 24 24 24 25 25 24 25 26 25 25 25 24 23 24 26 27 26 26 27 27 28 28 29 30 31 30 29 28 27 27
20 22 19 19 21 20 18 18 20 21 19 17 18 16 15 18 17 18 18 15 15 16 17 18 21 22 22 21 22 23 25 26 25 22 23 24 25 27 27 26 25 26 26 26 26 27 30 29 30 30 29 28 27 27
16 21 20 18 19 18 16 17 17 17 16 17 17 16 14 14 14 12 14 13 12 13 13 12 13 16 21 24 24 23 23 24 25 24 25 28 27 27 27 25 24 24 25 27 28 27 27 27 29 29 28 28 27 27
19 20 23 22 21 20 17 15 16 16 16 16 14 15 15 14 13 14 17 18 15 15 18 20 21 22 22 22 23 24 25 24 26 27 28 28 28 28 28 27 26 27 28 28 28 27 27 27 28 29 28 28 28 27
22 19 20 22 22 20 17 16 16 15 14 15 14 14 13 13 12 15 16 17 19 22 24 25 26 26 26 26 26 28 29 30 30 29 27 27 26 25 26 25 25 26 27 28 28 28 27 28 28 28 28 28 28 29
22 22 20 20 20 20 21 19 17 17 18 17 14 12 13 15 15 15 16 18 23 26 25 25 25 25 26 29 30 29 30 29 26 24 23 23 24 22 22 26 26 25 26 26 28 27 26 26 26 26 27 27 28 30
20 22 22 21 21 20 22 23 20 19 18 19 20 19 19 19 19 22 23 24 24 24 25 27 28 28 29 28 27 27 25 25 26 24 22 21 20 20 23 25 25 25 26 24 23 22 22 24 23 23 23 24 24 23
18 21 20 17 17 17 18 17 16 17 17 18 19 19 19 20 19 18 16 17 22 23 22 21 22 20 20 20 21 22 22 19 18 18 17 17 17 17 18 19 21 23 21 22 22 21 20 21 21 21 21 20 20 19
20 19 17 16 16 17 16 18 18 19 19 18 20 19 19 20 20 12 14 14 13 13 13 14 14 15 18 18 19 18 18 18 17 17 17 16 15 15 14 15 16 18 20 21 20 19 17 16 15 16 17 15 13 11
14 13 12 14 14 12 13 12 13 11 10 12 13 16 17 17 13 11 15 16 14 12 12 13 14 15 17 19 18 18 18 18 18 18 18 15 14 12 10 10 12 14 16 16 15 13 12 10 9 9 8 7 6 5

GFSWCAN_sfc_30mbdewp_018.txt.gz
Dewpoint
49 50 50 50 50 50 51 51 51 51 52 52 52 52 52 51 50 52 52 52 45 40 43 46 45 41 41 39 36 39 39 38 37 35 33 31 28 28 29 28 25 24 23 24 26 25 22 29 31 29 29 34 35 35
49 50 50 50 50 50 50 51 51 51 51 51 51 52 52 51 51 50 49 51 50 44 42 49 50 49 45 42 40 40 37 37 38 35 33 30 30 29 29 28 30 27 27 26 28 27 30 31 32 33 34 36 36 38
49 49 49 49 50 50 50 50 51 51 52 51 51 51 52 52 51 50 50 50 46 43 42 43 43 46 49 49 46 41 39 40 39 39 35 34 32 33 31 30 32 32 34 31 31 32 32 35 37 37 38 38 40 40
48 48 48 49 49 50 50 50 50 51 51 52 52 52 52 52 51 50 49 49 46 43 40 40 43 43 47 49 49 46 44 44 41 39 37 36 35 36 34 35 35 37 37 36 35 36 37 38 38 39 41 39 37 37
47 46 47 48 48 49 50 50 50 50 51 51 51 52 52 52 51 50 50 51 50 45 40 40 43 43 44 47 47 48 46 44 43 41 39 37 38 38 37 36 35 38 37 35 33 35 37 38 40 38 35 34 30 31
46 46 46 46 48 48 49 50 50 50 51 51 51 51 51 51 51 51 47 50 51 50 44 38 42 42 41 43 44 45 45 45 43 42 40 39 40 38 35 33 35 37 39 39 37 39 40 38 36 35 31 29 31 33
45 46 46 46 46 47 48 49 49 49 50 50 51 50 50 51 51 47 44 45 51 49 43 40 39 38 39 40 41 42 43 43 43 41 39 39 38 39 36 34 36 37 37 38 39 39 36 36 35 33 31 27 22 19
45 45 45 46 46 46 47 47 47 48 49 50 50 49 49 49 48 46 46 48 51 46 44 39 37 37 39 37 37 39 39 39 40 40 38 38 38 38 35 37 36 36 37 32 29 31 34 31 26 21 21 19 19 19
44 44 44 45 45 45 46 47 47 47 48 48 48 47 46 44 43 43 46 46 45 45 40 36 34 34 40 37 37 37 36 36 37 36 36 37 35 33 30 29 31 31 34 29 31 28 27 26 24 22 22 23 21 21
45 44 44 44 45 45 46 47 47 47 47 46 44 41 37 40 46 45 42 41 40 37 36 34 35 35 38 36 36 36 34 33 29 33 35 33 32 27 28 29 30 29 29 29 28 28 27 24 24 24 23 23 25 24
45 44 44 44 45 45 46 46 47 46 44 41 38 36 41 45 41 38 35 35 33 32 33 33 34 34 38 35 35 35 32 32 26 26 29 29 28 26 29 30 28 26 25 26 26 26 27 28 26 25 26 27 28 26
45 45 43 44 45 45 44 45 44 42 41 41 41 42 40 37 35 34 31 31 31 30 32 31 33 35 35 37 34 31 30 29 23 27 27 24 26 28 29 25 25 26 25 23 22 22 23 24 24 25 26 26 26 26
44 44 43 44 44 44 42 43 43 42 38 36 36 35 32 31 29 28 25 26 27 30 32 33 31 33 34 34 31 30 26 23 28 24 22 23 26 28 28 27 22 24 24 23 22 22 23 23 24 24 24 24 24 24
44 43 43 44 44 41 41 42 39 34 29 26 29 28 26 26 26 25 25 26 30 32 33 33 30 29 29 29 28 24 24 25 22 20 18 25 26 24 24 23 22 21 21 22 22 23 24 24 24 24 24 24 23 23
44 43 44 44 41 40 39 37 36 33 26 21 19 21 24 24 27 31 32 33 33 34 32 30 28 27 26 25 24 23 20 18 19 18 22 25 24 24 23 22 20 21 22 22 24 24 24 24 24 24 25 25 24 24
44 43 41 42 40 39 37 34 32 30 27 23 24 22 26 27 26 29 31 31 33 31 26 25 22 22 24 22 20 19 18 15 16 20 21 23 23 24 23 21 22 23 24 24 25 25 25 25 25 26 26 25 25 25
41 40 42 41 38 36 35 31 29 26 22 19 21 27 25 24 25 26 28 29 32 26 20 20 11 12 18 18 16 19 17 17 19 18 21 23 21 21 21 22 23 24 24 25 25 26 26 26 26 25 26 27 27 27
39 42 41 39 38 37 35 30 24 22 20 23 21 24 27 25 27 27 28 30 30 24 21 17 18 11 11 9 12 16 20 21 21 21 22 22 22 22 23 23 24 25 25 26 26 25 25 26 27 27 27 28 28 29
40 40 39 37 35 32 30 30 26 20 18 24 24 24 23 24 25 26 27 30 30 28 25 22 18 14 12 16 13 12 12 14 18 20 21 22 22 23 23 24 25 25 26 26 26 26 27 28 27 27 28 28 29 30
40 38 36 33 31 26 26 28 27 23 20 23 24 25 24 24 25 25 26 28 29 29 27 24 21 18 16 16 17 16 18 20 21 21 21 21 23 23 24 25 26 26 27 26 26 26 26 26 27 28 28 29 30 30
37 37 35 33 29 26 25 25 25 24 24 23 24 23 22 23 24 24 25 28 27 25 24 25 24 23 24 23 23 23 23 23 22 22 21 21 24 25 26 26 26 26 24 25 26 25 26 25 26 28 29 31 31 31
36 37 33 29 25 23 24 25 22 23 20 21 21 22 21 21 21 23 24 24 23 24 24 22 22 22 22 22 22 24 23 24 24 24 24 24 24 25 25 24 24 23 24 26 25 25 26 26 26 28 30 29 31 30
33 30 27 22 20 17 21 24 21 22 18 19 20 20 19 19 19 24 23 23 24 25 24 23 23 23 23 24 25 25 25 24 24 25 25 25 25 25 24 24 23 25 26 26 25 25 26 27 28 29 30 30 30 29
30 23 21 20 17 19 19 21 22 21 19 19 18 16 16 17 20 20 19 20 22 24 23 22 23 23 24 24 24 24 24 25 25 25 25 24 24 22 23 23 26 25 26 25 25 25 26 27 29 29 27 27 27 27
22 22 18 18 20 18 17 18 19 20 18 16 18 17 16 17 18 18 18 18 16 15 15 17 19 21 20 19 21 21 23 24 23 21 22 23 23 22 24 26 25 26 26 24 25 25 25 26 25 26 26 28 27 26
15 20 19 16 18 17 16 16 16 17 16 17 16 14 13 14 14 12 13 13 12 12 11 11 12 13 17 21 21 21 21 23 24 24 24 24 24 25 27 27 26 25 25 26 27 25 25 26 25 25 25 26 28 28
17 18 21 22 20 17 16 13 14 15 16 15 15 15 15 14 13 14 16 18 16 15 16 16 18 19 20 20 22 23 24 24 25 26 26 29 30 30 29 27 25 26 27 27 26 26 26 25 25 25 25 26 27 28
20 20 18 21 21 18 16 16 16 16 15 15 12 14 13 12 11 15 16 17 17 17 19 21 23 24 24 25 25 25 26 27 27 27 26 25 25 25 25 25 24 25 25 26 25 27 26 25 24 24 24 24 24 26
22 21 19 19 19 19 19 17 15 16 17 16 14 13 13 15 16 16 17 20 22 23 23 23 24 25 26 26 26 28 29 28 26 23 21 22 23 23 22 23 25 25 25 24 23 22 21 23 23 22 22 22 23 23
21 20 20 18 19 18 20 21 21 20 18 18 18 18 19 19 18 16 17 19 20 22 23 25 25 25 25 25 25 24 20 21 22 22 21 20 19 17 18 18 21 23 23 22 21 20 20 19 19 19 19 18 18 17
17 20 20 19 19 18 18 16 15 15 16 17 17 18 17 18 15 14 13 13 14 14 14 13 14 16 16 16 17 18 19 16 16 17 16 16 16 16 16 16 16 16 17 20 19 17 16 14 13 14 16 13 11 10
18 19 19 17 15 14 13 16 15 14 12 12 12 14 15 18 13 11 13 12 10 9 10 11 11 11 15 16 17 17 17 17 16 16 16 15 14 13 12 11 11 12 15 15 13 12 10 9 9 9 8 7 6 5
11 10 9 14 13 8 8 8 8 10 9 8 11 14 11 11 5 8 12 13 11 10 9 10 12 13 15 15 15 14 14 14 14 14 14 12 10 8 6 5 6 8 11 10 8 8 7 6 5 4 3 3 2 1

GFSWCAN_sfc_30mbdewp_021.txt.gz
Dewpoint
49 50 50 50 50 49 49 50 50 51 52 52 52 52 51 51 50 52 51 50 43 38 43 45 43 38 39 37 35 39 39 38 37 35 34 32 30 29 29 27 25 23 24 25 26 25 22 29 31 28 30 33 35 36
49 49 50 50 50 49 50 50 50 50 51 52 52 52 52 51 50 50 49 50 48 42 41 48 50 48 44 41 39 40 36 37 39 35 33 31 30 28 28 26 30 27 27 26 28 28 30 31 31 33 35 37 37 38
49 48 48 49 49 50 49 50 51 51 51 51 51 51 52 51 51 50 49 49 45 41 41 43 43 46 49 48 44 40 39 39 39 38 34 33 33 31 30 30 31 32 33 31 30 32 33 34 36 40 41 38 38 37
47 47 47 49 48 49 49 49 50 51 51 51 51 51 52 52 51 50 48 47 45 42 38 39 43 42 46 49 48 46 43 42 40 39 36 36 35 35 33 33 32 33 36 35 34 36 36 37 41 39 37 35 32 29
46 46 46 47 48 48 49 49 49 50 51 52 52 52 52 52 51 50 50 50 48 43 38 38 43 43 43 46 48 47 44 44 42 40 38 37 37 37 37 36 35 38 37 35 33 36 38 38 38 37 34 30 29 30
46 46 46 46 47 48 48 49 50 50 50 51 51 52 52 51 51 50 45 49 51 48 40 35 41 41 40 42 44 45 46 44 44 41 39 39 40 38 35 32 36 38 39 38 37 40 39 37 36 35 30 30 27 26
45 45 46 46 46 47 47 49 50 50 50 50 51 51 51 51 51 47 44 44 51 48 42 38 38 38 38 40 41 42 44 44 44 41 39 39 39 40 36 33 37 37 37 34 36 38 36 36 33 32 25 22 22 21
45 45 45 45 46 46 47 47 49 50 50 50 50 50 50 49 48 47 46 48 50 45 43 37 36 37 38 36 37 39 38 39 40 40 37 38 38 38 35 34 31 32 29 28 27 29 30 28 26 25 25 23 23 23
44 44 44 45 45 46 47 47 47 49 49 49 49 48 47 45 44 44 46 47 45 44 40 36 35 32 40 36 36 36 37 36 37 36 36 37 35 34 30 29 29 31 31 28 29 27 25 21 21 25 25 24 23 24
44 44 43 45 45 46 46 47 47 47 47 47 46 42 38 40 46 46 43 42 40 37 36 36 36 36 39 36 35 36 35 34 31 33 34 33 32 28 29 29 28 29 30 29 23 15 18 20 23 26 25 24 25 25
44 44 43 45 45 46 46 46 46 46 45 42 38 36 41 45 41 38 35 35 33 32 33 33 34 34 38 35 35 35 33 32 27 27 29 29 29 27 29 28 27 26 26 26 26 26 27 25 24 24 24 25 26 26
45 44 43 45 45 45 46 46 45 43 42 42 41 42 40 37 35 32 31 31 31 30 32 32 33 35 35 37 35 32 30 29 24 28 27 24 26 29 28 25 25 26 24 22 22 22 22 23 24 24 24 24 25 25
45 44 43 44 45 44 45 44 44 44 41 40 37 33 33 31 30 28 26 27 28 30 32 33 31 33 34 34 31 30 26 24 27 24 22 23 27 29 27 27 21 22 21 21 22 23 24 24 24 24 24 25 25 25
44 43 44 44 43 44 44 42 39 36 33 31 33 29 28 27 27 27 25 26 30 32 33 32 30 30 29 29 27 25 24 25 22 20 19 25 28 26 26 23 22 18 19 20 22 23 24 24 24 24 24 24 24 25
44 43 44 42 41 41 40 38 35 31 26 21 23 25 25 25 29 29 32 32 32 33 32 30 28 27 26 25 25 23 21 19 19 18 22 27 25 24 23 23 21 19 20 22 24 24 24 24 24 24 25 26 26 25
44 43 42 41 40 38 36 34 31 30 25 22 24 22 26 26 27 30 31 31 33 30 27 25 24 25 24 23 21 20 18 15 16 21 25 24 23 22 21 21 21 22 23 24 25 25 25 25 25 25 26 26 25 26
42 40 42 40 37 35 33 31 29 24 21 18 21 26 24 24 26 27 29 31 31 27 23 20 16 16 19 19 19 20 18 17 20 19 21 23 21 20 21 22 22 23 24 25 25 26 26 26 25 25 25 26 27 28
40 42 39 38 37 36 34 28 24 22 20 24 20 25 27 26 25 26 28 31 30 23 20 15 16 12 10 10 11 15 20 21 20 20 21 22 22 22 22 22 23 24 25 25 26 26 26 25 27 26 27 27 28 27
41 41 40 39 36 32 29 29 26 20 20 24 24 24 24 25 25 26 27 29 29 27 23 20 18 15 12 15 14 16 17 18 16 18 21 22 22 22 22 23 24 25 26 26 26 26 26 27 27 27 26 27 27 27
40 38 35 33 30 27 26 27 26 22 20 23 24 24 24 24 25 25 27 28 29 28 26 24 22 19 16 16 17 15 16 17 19 20 21 22 23 22 23 24 25 26 26 26 26 24 26 26 26 26 25 26 27 27
37 37 35 31 27 26 26 25 24 24 25 23 23 23 22 24 24 24 26 27 28 26 23 25 25 23 22 21 21 22 22 22 22 22 21 21 23 23 24 25 26 26 25 24 24 25 25 26 26 27 26 27 28 31
36 36 30 27 23 23 23 24 23 23 21 21 22 21 21 21 21 22 24 24 23 24 25 22 22 23 23 23 23 24 24 24 25 25 24 24 23 24 24 25 25 24 24 24 25 26 26 26 26 28 28 28 30 29
32 28 23 19 19 20 22 22 21 21 16 19 19 19 19 19 18 23 21 22 22 24 25 25 24 23 23 24 24 24 25 25 24 24 24 24 25 25 25 25 25 24 24 26 26 26 26 26 26 26 28 30 27 27
26 23 20 19 17 19 19 20 21 20 19 18 17 14 16 17 20 19 18 19 21 23 24 23 23 22 22 23 22 22 23 25 24 24 24 24 23 23 24 24 23 24 26 28 26 25 25 25 25 25 24 25 26 26
20 20 17 18 19 17 16 17 18 19 18 14 17 16 16 16 18 17 16 18 17 17 17 18 18 20 18 17 18 19 21 23 22 21 22 23 23 23 24 24 24 26 29 27 25 26 26 25 24 25 25 25 25 25
17 19 17 16 17 15 14 14 14 15 15 16 15 13 11 15 15 13 14 15 14 14 12 11 12 13 15 19 19 20 20 23 24 23 24 25 25 25 26 26 26 26 26 27 26 25 25 25 25 25 24 24 24 24
16 17 20 21 18 15 14 12 12 13 14 14 15 15 15 14 12 13 16 17 16 16 16 16 17 16 17 20 22 23 24 24 24 25 25 27 29 29 29 26 26 26 26 26 26 25 24 24 23 23 22 23 23 23
18 20 16 20 19 15 15 15 16 15 15 14 12 14 13 12 10 14 17 21 22 23 23 23 23 23 23 24 25 25 26 26 27 27 26 25 23 23 23 24 25 25 26 27 26 24 22 21 21 22 22 21 21 22
21 19 20 18 17 17 18 17 16 16 16 15 13 12 12 14 16 15 16 16 19 22 22 22 23 23 24 24 25 25 25 25 25 24 23 22 21 21 18 19 21 24 25 23 24 23 22 21 21 20 19 17 17 16
20 20 19 16 18 18 18 18 19 17 17 17 17 18 18 15 12 13 12 11 12 12 14 14 15 15 16 16 16 18 17 17 17 18 19 18 17 15 16 16 16 17 18 19 20 19 18 16 15 15 13 11 11 10
17 18 19 18 18 18 17 13 12 13 15 16 15 16 15 11 11 11 10 11 11 10 9 8 9 11 11 12 13 14 15 15 16 15 15 14 14 13 13 12 12 13 14 18 17 15 13 11 10 11 9 7 6 6
17 18 18 17 16 12 10 13 13 12 9 7 7 10 13 12 6 8 10 8 7 6 6 8 7 9 12 15 15 14 14 13 12 13 12 12 11 10 9 8 7 9 11 11 9 8 7 7 6 5 5 4 3 2
9 10 8 11 14 7 6 5 5 6 8 8 10 10 6 5 3 6 7 9 8 7 6 7 9 13 12 11 10 10 10 10 10 8 8 8 6 4 4 3 4 5 7 7 5 5 4 3 3 2 1 0 -1 -1

GFSWCAN_sfc_30mbdewp_027.txt.gz
Dewpoint
51 51 51 50 49 49 49 50 50 51 51 52 52 51 50 50 51 52 52 53 50 45 44 45 43 41 41 39 42 42 41 43 44 37 37 37 36 33 30 25 31 30 32 30 32 28 26 30 30 32 35 37 40 39
49 50 50 50 49 49 49 49 50 51 52 52 52 52 51 50 50 51 47 52 52 45 47 51 50 49 48 45 39 44 38 42 41 41 40 40 35 37 37 28 27 26 29 29 31 30 30 31 34 39 40 39 39 37
47 48 49 50 49 49 49 49 49 51 51 52 51 52 51 50 50 52 50 51 48 50 45 46 46 49 50 50 49 43 45 41 43 45 44 41 34 38 32 34 30 31 30 32 33 31 30 33 38 40 39 38 38 37
47 47 48 49 49 49 49 49 49 50 51 51 51 52 52 51 51 52 49 52 48 46 40 45 45 46 47 49 49 49 46 47 46 45 41 38 36 38 37 34 32 33 32 31 33 33 35 40 40 39 37 36 34 28
46 46 46 47 48 49 49 49 49 50 50 51 51 51 52 51 53 53 53 53 52 47 41 45 45 45 45 47 48 48 46 45 46 41 39 39 42 41 40 39 35 35 32 33 34 39 40 39 39 37 34 29 25 23
45 45 46 46 47 48 49 49 49 50 50 51 51 51 52 51 52 50 45 52 52 51 44 39 45 43 43 45 47 46 46 48 46 44 42 42 40 38 37 35 33 34 35 39 38 39 39 37 36 32 29 26 24 23
45 45 45 45 46 47 47 48 49 49 50 51 51 52 52 51 53 47 44 50 51 50 43 39 41 43 42 44 44 44 47 47 44 43 43 41 40 39 38 34 33 37 36 37 38 38 35 35 35 31 27 25 20 16
44 44 44 45 45 46 46 47 48 49 49 50 51 51 50 49 49 49 51 51 51 48 47 36 38 40 42 42 41 42 42 43 44 42 40 40 40 41 35 37 37 35 33 34 37 39 36 34 28 25 19 16 14 14
44 44 44 44 45 45 46 46 47 48 49 49 49 49 49 48 47 50 47 50 50 47 39 39 36 34 41 39 40 40 42 37 41 37 37 39 37 34 37 36 34 32 32 35 32 27 24 19 17 15 15 15 15 16
43 43 43 44 45 46 46 46 47 47 48 49 49 46 42 42 47 48 48 45 44 42 40 39 42 37 39 38 37 37 38 37 33 35 36 33 33 33 33 34 33 34 35 31 28 20 18 17 16 16 16 17 18 19
43 43 43 45 45 46 45 46 46 47 48 44 39 37 42 46 42 40 38 39 37 35 35 38 39 37 40 36 36 37 35 34 30 33 33 32 30 33 32 31 31 31 28 20 20 19 16 16 16 17 19 21 23 23
43 44 43 44 45 46 45 45 45 44 43 42 41 42 41 37 35 35 35 33 33 34 33 33 34 36 35 39 34 33 32 32 29 32 30 27 30 31 30 27 27 24 21 19 17 15 16 16 18 21 23 23 23 27
44 44 43 44 45 45 44 44 44 44 44 40 35 34 33 31 30 29 28 30 30 32 33 33 32 34 34 36 32 32 30 30 31 28 25 27 30 30 28 27 25 24 21 19 15 15 16 19 23 27 27 28 30 28
43 43 43 44 44 44 42 39 40 41 38 33 32 29 30 29 30 31 33 33 34 35 35 33 32 32 33 31 32 30 30 29 26 23 24 28 29 29 27 25 23 21 25 22 22 20 22 27 29 30 30 30 30 29
42 43 44 43 42 42 41 38 37 38 36 32 32 28 29 30 31 31 33 33 34 36 36 34 33 35 31 29 31 29 26 24 24 24 29 28 29 29 27 26 23 22 26 24 19 21 26 28 29 30 31 32 31 32
43 43 43 43 44 41 40 39 39 35 33 32 31 29 30 30 30 31 32 32 35 35 36 35 31 30 28 30 27 26 26 22 26 28 28 29 29 27 25 22 21 19 20 20 20 22 24 28 29 29 30 31 31 31
43 41 42 40 41 40 41 38 36 31 31 29 29 33 32 32 31 32 33 33 35 34 30 31 27 26 28 27 25 26 25 28 28 29 28 28 25 22 19 20 23 23 24 23 23 23 25 27 29 31 30 28 28 29
41 42 41 38 38 38 35 34 32 31 27 28 29 30 30 32 32 31 33 34 33 29 28 25 24 23 23 22 22 27 26 27 28 27 21 20 21 22 22 22 21 21 22 23 26 28 28 30 30 26 24 25 27 27
41 43 40 40 39 37 34 34 32 26 27 28 29 29 31 30 31 33 33 34 32 30 29 27 26 21 20 18 24 27 27 26 22 21 21 22 23 24 24 23 24 24 24 24 25 26 26 25 26 26 27 28 28 28
41 39 36 36 39 35 31 31 30 26 26 27 29 29 30 29 30 30 32 33 31 33 29 26 24 23 22 21 21 22 22 23 21 22 22 21 20 22 24 24 24 24 24 24 26 27 28 27 26 27 29 28 28 29
37 38 36 36 34 32 29 28 28 27 26 26 27 27 27 29 29 29 30 32 30 28 24 24 27 29 29 27 25 24 24 24 21 21 22 21 22 22 23 24 25 25 26 27 31 29 30 31 30 30 30 29 28 28
35 37 35 33 31 29 28 28 27 27 26 26 26 26 27 27 27 27 28 28 26 24 24 24 24 23 23 25 25 25 25 25 25 24 25 25 24 25 25 25 26 27 29 31 30 31 33 31 31 31 30 30 29 28
35 35 32 31 27 28 25 28 26 23 24 25 25 25 25 25 25 25 24 24 24 24 24 23 23 25 25 24 24 24 24 24 23 22 24 25 26 27 28 28 28 31 32 30 30 30 30 32 32 30 30 29 28 28
33 29 27 26 26 23 27 25 24 23 24 22 22 21 21 23 23 22 21 21 22 22 23 23 24 22 21 23 22 19 18 20 22 22 24 26 26 25 25 24 26 29 30 31 31 31 31 31 30 30 28 27 27 27
27 24 26 21 24 22 21 21 22 22 20 21 20 20 22 23 21 19 20 18 28 29 29 27 23 21 19 19 19 20 23 24 24 24 25 27 28 28 28 27 27 29 32 31 30 31 29 28 27 27 26 27 25 23
21 23 22 21 21 20 20 19 19 20 20 20 21 21 23 21 19 17 16 25 26 25 26 27 26 25 23 24 24 25 26 28 28 27 26 28 31 32 31 29 29 30 31 31 29 27 26 25 24 24 24 24 25 24
19 20 22 21 20 20 20 21 20 20 18 18 20 20 20 16 14 17 22 20 22 22 23 23 24 23 22 22 23 24 25 25 26 26 27 28 29 30 31 29 28 30 31 30 29 28 26 24 23 23 23 23 25 24
22 21 19 22 21 21 20 19 19 18 20 19 21 19 17 16 18 21 19 18 19 19 19 19 19 19 19 19 20 20 21 21 21 21 23 25 30 25 24 25 27 26 27 29 28 27 26 26 25 24 23 23 23 23
23 23 21 20 21 22 22 20 20 20 20 21 21 19 22 18 16 16 16 16 17 17 16 15 16 17 17 17 17 20 18 17 15 13 14 16 16 17 21 21 21 22 23 24 26 26 24 23 23 22 21 20 19 20
22 24 22 21 19 20 25 26 26 28 24 26 26 22 18 15 14 14 14 14 14 14 14 14 14 14 13 13 13 14 18 15 14 12 11 11 13 16 16 16 16 17 18 20 21 22 24 22 22 21 17 16 15 15
23 23 23 23 22 24 25 25 26 26 27 27 26 25 19 14 13 12 12 13 13 12 11 11 11 12 11 11 11 10 10 12 12 12 11 11 13 13 13 13 14 15 16 17 18 19 17 18 17 15 14 12 11 10
23 22 21 20 21 24 24 24 24 24 24 21 20 18 16 15 12 10 10 11 10 9 9 9 9 9 10 12 13 13 12 11 11 10 10 9 9 9 10 11 12 12 14 14 16 16 15 14 13 12 11 9 7 6
20 20 19 19 19 19 20 17 14 14 17 17 16 15 14 14 9 10 10 10 9 8 8 8 9 9 11 11 10 12 11 9 10 10 10 8 7 7 7 8 7 7 10 12 12 12 11 9 9 8 6 5 3 2

GFSWCAN_sfc_30mbdewp_030.txt.gz
Dewpoint
50 50 49 49 49 49 49 49 50 50 50 52 51 51 50 50 50 53 53 55 53 47 45 45 43 42 41 42 44 42 41 43 45 35 35 36 37 35 30 27 32 29 31 30 31 28 25 31 33 33 37 39 40 39
50 50 50 49 49 49 49 50 50 51 52 51 52 51 50 50 50 52 49 52 54 49 48 51 50 50 48 47 42 44 39 43 44 42 40 41 37 39 36 28 24 26 33 33 33 31 33 35 39 41 41 39 38 37
49 50 50 49 49 49 49 49 50 51 52 51 52 52 51 50 50 52 51 53 49 52 46 47 47 48 50 50 50 44 46 41 41 47 43 40 34 40 30 34 28 27 28 30 32 32 31 38 40 39 39 39 38 36
47 48 49 49 49 49 49 49 50 51 51 51 51 52 51 51 52 52 50 53 49 48 41 46 46 47 48 50 49 49 47 49 48 47 41 39 33 39 38 34 33 35 33 31 31 32 33 40 40 39 38 36 33 28
46 46 47 49 49 49 49 49 49 50 51 51 51 52 52 51 52 53 53 52 53 49 41 46 44 45 45 47 48 47 47 47 47 41 39 37 43 40 42 40 39 36 31 33 34 39 39 40 39 39 37 31 26 24
46 46 46 47 48 49 49 49 49 50 50 51 51 51 52 51 51 52 46 52 52 52 44 40 46 44 43 45 46 46 46 49 47 45 42 45 40 39 37 35 34 30 31 38 38 40 40 39 38 37 32 27 24 23
45 45 45 46 46 47 48 49 49 49 50 51 51 51 52 51 53 48 45 51 51 53 43 38 44 43 43 44 45 47 48 48 46 43 44 43 42 40 39 34 32 32 36 38 39 38 37 37 35 34 30 26 19 16
44 44 44 45 46 46 47 48 48 49 49 50 51 51 51 49 49 49 51 51 52 49 47 36 39 41 43 43 42 43 44 44 43 43 42 40 40 41 36 38 35 35 35 38 39 39 38 36 33 27 22 16 15 15
43 43 44 45 46 46 46 46 47 48 49 49 50 50 51 50 49 50 49 51 52 49 39 38 35 34 41 41 41 41 43 37 41 38 38 40 37 34 37 37 37 34 34 35 35 31 28 24 19 17 16 16 16 16
42 43 44 45 45 45 45 46 47 48 48 49 50 47 42 44 47 48 49 45 44 44 43 39 41 38 39 38 37 37 39 36 34 36 38 34 34 39 37 36 36 34 36 35 30 24 20 19 18 17 17 18 20 22
43 43 44 45 46 45 45 46 46 47 48 45 41 39 42 45 45 43 41 40 39 38 38 40 42 38 41 36 36 39 35 35 31 34 34 32 31 35 36 34 35 35 35 30 24 21 19 18 17 17 19 23 25 26
44 43 44 45 45 44 45 46 45 44 43 42 41 42 41 37 36 38 36 35 34 35 34 34 36 39 38 41 36 34 34 33 30 35 32 29 30 34 33 32 32 30 24 21 19 17 17 16 18 24 26 26 26 28
44 43 44 45 44 43 43 44 43 43 43 40 36 35 35 32 30 31 29 30 32 32 33 34 32 34 35 36 33 32 30 29 35 30 27 30 32 31 30 28 27 25 22 20 18 18 18 19 23 25 27 28 29 29
43 44 44 44 43 40 39 41 42 41 38 33 32 29 30 29 30 30 31 32 34 35 34 34 32 33 33 32 32 30 31 32 27 25 26 32 29 29 28 27 26 25 22 21 25 24 23 24 25 29 30 30 30 30
43 44 43 43 42 40 37 37 38 39 37 32 32 28 29 30 31 32 33 33 34 36 35 33 33 34 31 30 31 30 27 26 28 28 32 31 30 29 28 26 25 25 26 25 23 23 23 25 27 28 30 31 32 32
43 43 42 41 40 41 41 40 39 36 35 33 32 30 31 31 30 32 32 32 35 34 35 35 31 30 29 30 28 27 27 26 30 31 31 32 31 30 28 26 23 22 23 24 25 25 24 25 27 29 31 31 30 30
42 42 43 43 42 40 38 38 35 33 33 32 30 33 33 32 31 31 33 32 36 34 30 32 28 25 30 28 26 30 28 30 31 31 31 31 28 27 23 21 23 24 25 26 26 26 26 27 29 29 29 30 30 30
39 42 41 39 38 37 36 36 34 33 28 30 31 31 32 34 32 32 34 35 34 31 31 28 29 26 25 23 24 28 28 30 30 30 27 24 22 23 25 26 25 25 25 25 25 26 27 28 28 30 30 28 27 29
41 42 39 38 40 37 35 34 34 28 28 29 30 30 31 32 32 34 34 33 32 32 28 28 27 23 22 21 27 29 30 28 26 25 23 24 26 26 25 26 26 26 26 26 27 27 27 28 28 28 28 29 30 30
39 39 39 40 39 36 32 32 32 28 27 28 30 29 31 30 31 31 33 34 33 33 29 27 25 27 27 24 23 23 26 29 23 24 24 24 24 25 26 27 27 28 27 27 27 28 29 29 29 28 30 30 29 29
37 38 37 38 36 35 33 29 29 28 27 27 29 29 28 29 28 29 31 33 31 30 26 26 28 30 30 29 28 28 26 26 25 25 24 24 25 27 27 27 27 28 28 29 29 30 30 29 31 32 31 30 31 31
36 38 35 36 32 31 29 30 28 28 27 26 27 27 26 26 26 27 29 29 27 26 26 26 25 26 25 26 27 27 27 27 27 27 26 26 26 27 27 28 28 29 29 29 28 29 31 32 33 33 32 31 31 29
35 34 33 32 29 29 26 30 27 25 24 26 26 25 24 25 26 26 24 25 25 25 25 25 24 26 27 27 25 25 25 25 25 25 26 27 28 29 29 29 30 29 29 30 30 31 30 30 31 32 31 30 30 28
35 30 29 29 28 24 28 26 24 24 25 24 24 22 22 23 24 23 22 22 22 24 24 24 23 23 24 25 24 22 26 26 26 27 28 27 26 26 27 28 29 28 28 29 31 31 32 31 31 30 29 28 27 28
29 25 27 23 25 23 22 22 22 22 21 22 21 21 23 24 21 20 20 25 27 27 27 29 28 26 23 25 27 27 29 29 28 28 28 28 29 29 29 29 29 31 31 30 31 32 31 30 29 27 27 27 27 26
23 25 25 23 23 22 21 20 20 21 21 21 22 24 24 22 19 17 20 26 24 23 23 24 25 24 24 23 22 23 23 24 24 22 22 24 24 24 25 25 25 26 26 28 30 30 29 29 28 26 26 27 27 26
21 21 22 22 21 22 23 23 22 21 20 19 21 21 20 17 16 22 22 21 22 21 21 22 21 20 19 19 20 20 22 22 21 20 21 23 26 23 22 20 20 22 25 26 27 27 27 27 27 26 26 26 26 26
22 23 19 22 22 23 21 20 20 20 20 20 22 19 18 17 20 20 19 19 19 20 19 19 19 18 18 18 20 20 19 18 17 16 17 24 23 20 18 19 19 19 21 22 23 24 25 25 24 25 25 24 23 23
23 24 22 21 23 23 22 21 21 20 21 22 21 20 23 18 19 19 18 18 19 18 17 16 17 18 17 16 18 21 17 15 12 10 9 11 12 12 15 17 16 17 17 18 19 21 22 23 22 22 22 22 21 22
23 26 22 21 20 21 26 29 28 28 27 29 27 21 18 16 16 17 17 16 15 15 16 16 16 15 14 13 13 13 17 16 13 11 8 8 10 12 13 13 12 14 15 15 16 18 20 19 21 23 20 18 16 17
24 24 23 23 22 25 25 26 26 27 27 27 27 24 17 14 14 14 14 16 15 15 12 12 12 13 11 11 11 10 10 11 13 13 12 12 11 11 10 10 11 12 12 13 14 16 17 16 18 18 15 13 12 11
22 22 20 19 22 25 25 24 24 23 25 22 23 19 18 17 14 13 12 15 13 11 10 10 9 9 10 11 12 12 15 13 12 12 10 11 9 9 8 8 9 9 8 8 11 14 15 13 14 11 11 8 7 6
21 21 20 20 19 19 21 20 15 15 18 17 19 17 16 16 12 12 13 12 11 9 9 9 9 10 12 13 8 11 8 8 8 12 11 11 9 7 7 7 8 6 5 5 9 12 10 9 7 7 5 4 2 1

GFSWCAN_sfc_30mbdewp_033.txt.gz
Dewpoint
50 49 49 48 48 49 48 48 49 49 50 52 51 50 49 49 50 54 50 55 52 46 47 50 49 45 44 44 40 43 39 42 41 31 27 30 33 32 30 32 30 25 26 28 29 26 22 33 34 28 35 40 38 37
49 49 49 48 48 49 48 49 50 50 51 52 51 51 50 50 51 53 47 53 55 51 50 51 49 50 50 50 45 43 36 44 43 37 37 39 35 38 34 25 33 27 29 29 29 27 31 36 37 41 41 38 38 36
49 49 48 48 48 49 49 50 50 51 51 51 52 51 50 51 52 53 52 54 52 48 48 48 47 49 49 50 52 42 45 45 45 46 40 38 30 38 30 31 30 29 35 32 33 33 37 40 39 39 39 38 38 36
49 49 49 48 48 48 49 50 50 51 51 51 51 52 51 51 52 54 52 54 49 47 41 46 46 46 47 49 49 49 49 49 48 44 39 39 32 40 34 28 31 31 35 33 32 36 39 40 39 39 39 38 35 33
47 48 48 48 48 48 49 49 50 51 51 51 51 52 51 51 51 54 54 54 53 48 39 43 46 45 45 47 48 49 48 47 44 41 37 34 38 40 40 39 37 38 34 32 30 37 38 39 39 39 37 32 32 26
46 46 47 48 48 48 48 49 49 50 50 51 51 52 51 51 53 54 50 53 52 53 41 36 46 44 44 45 47 48 49 49 47 42 41 42 45 38 36 34 36 36 35 38 40 40 40 40 39 38 35 32 26 22
45 46 46 47 48 49 48 48 49 50 50 50 51 51 50 50 49 48 45 50 50 52 39 39 41 43 42 45 45 46 47 47 45 43 42 41 41 40 37 33 36 35 39 39 39 38 37 37 36 37 34 29 19 17
45 45 46 46 46 47 48 49 49 49 50 51 51 51 50 49 50 50 49 50 51 46 43 35 38 39 43 42 40 43 41 43 43 42 41 39 40 39 35 38 38 37 39 38 39 39 38 38 36 34 32 18 17 17
44 45 45 45 45 45 46 48 49 49 49 50 51 51 51 49 48 49 49 50 51 46 37 37 31 30 42 40 40 40 42 37 40 39 38 39 37 35 37 38 37 37 37 38 38 36 35 34 23 18 18 18 19 21
44 45 45 45 45 45 45 46 48 49 49 50 50 46 43 44 46 49 47 42 42 42 41 37 39 36 39 38 37 36 38 35 32 34 39 35 34 38 38 36 35 35 36 35 32 26 22 20 19 18 19 24 24 24
44 45 45 44 44 46 46 46 47 48 48 46 43 41 42 45 45 42 38 38 39 37 39 40 39 37 41 35 35 37 34 34 30 31 33 32 31 34 36 35 36 37 35 34 26 20 19 19 19 21 23 26 25 25
44 45 44 44 44 45 46 46 46 44 43 43 42 42 40 38 38 38 37 36 36 35 35 36 36 38 38 41 35 35 33 33 28 35 32 28 33 33 33 34 35 35 29 21 19 19 20 20 24 22 21 22 26 27
44 44 43 42 43 44 44 44 43 43 43 40 38 36 36 33 32 32 31 32 32 33 34 34 33 35 36 36 34 33 31 30 35 30 27 31 33 33 32 31 25 21 20 20 21 22 21 20 21 22 23 26 27 28
43 44 44 40 39 39 40 41 42 41 37 34 33 30 31 29 30 29 30 31 34 34 34 34 32 33 33 33 32 30 31 31 27 25 26 33 34 31 29 28 25 21 21 21 22 23 22 22 23 25 27 27 28 28
43 43 43 42 39 39 40 39 39 40 36 32 33 28 28 30 31 32 33 33 34 36 34 33 32 33 31 29 31 29 26 25 28 27 31 34 31 28 27 26 24 23 23 24 25 23 22 23 24 25 27 28 29 30
42 43 41 41 41 40 40 39 38 37 34 32 32 29 31 30 30 31 32 31 33 33 34 34 31 30 28 29 28 27 27 25 28 32 34 31 30 29 28 25 23 22 21 22 23 25 25 25 25 26 29 29 28 28
41 41 43 42 40 36 39 37 35 33 31 31 29 33 33 32 31 31 32 32 35 33 30 31 27 25 30 27 26 30 27 29 32 32 32 30 28 26 23 23 24 25 25 25 26 26 26 27 27 27 26 27 28 30
40 42 43 41 39 39 37 37 34 31 28 32 31 31 31 33 32 32 34 35 33 31 31 28 30 26 25 24 27 29 29 29 31 29 27 25 24 25 25 24 25 26 26 25 25 25 26 26 26 27 28 29 29 28
42 41 39 38 40 37 34 32 35 28 28 30 30 31 30 31 32 34 33 32 32 33 27 28 25 24 23 23 28 30 29 28 26 25 24 24 24 25 25 26 26 25 25 26 26 27 27 28 28 28 29 29 29 30
39 39 39 39 39 35 31 30 34 29 28 29 30 29 30 29 30 32 33 33 33 31 28 25 26 28 26 25 25 25 30 29 24 23 24 25 26 25 25 26 27 28 28 28 28 28 28 29 29 29 30 30 28 28
38 38 38 37 36 34 32 31 28 28 28 28 30 28 27 29 28 29 30 32 29 28 26 27 28 30 29 29 28 28 27 26 26 26 26 25 26 26 25 26 28 28 28 28 27 28 29 28 29 32 31 30 30 30
37 36 34 35 32 31 30 30 29 29 27 26 28 28 25 25 25 26 27 28 28 27 27 26 27 27 28 28 29 29 28 27 27 26 26 26 26 26 27 28 29 28 28 28 29 29 29 29 32 30 30 30 30 30
36 35 32 32 29 28 25 30 26 26 22 26 27 25 23 24 26 27 24 25 26 27 26 27 27 26 26 26 25 28 29 27 27 28 28 28 27 27 28 29 29 29 28 29 29 30 29 30 30 30 31 30 29 28
35 31 29 29 30 24 27 25 25 25 25 24 25 23 25 24 24 23 23 25 28 28 28 28 29 26 27 28 28 26 25 26 25 25 26 26 26 26 24 24 25 26 27 27 27 27 27 29 31 30 29 27 26 26
28 26 27 23 28 25 22 22 23 23 21 23 21 22 23 24 22 21 20 26 24 24 24 25 25 26 23 24 24 23 23 22 21 20 22 21 21 21 22 23 25 24 22 21 21 23 24 26 30 28 27 26 25 25
24 26 24 24 24 24 21 20 21 21 21 21 22 24 23 22 20 19 22 23 23 23 23 23 22 21 21 21 20 19 21 21 18 18 18 20 22 18 17 16 15 16 18 20 19 19 19 22 25 26 25 25 26 26
21 22 24 23 24 24 23 23 23 22 20 20 21 21 21 18 17 21 22 22 22 23 23 22 19 19 19 18 18 22 20 17 16 16 17 21 19 17 15 14 13 15 16 17 17 17 17 19 22 22 22 24 26 24
23 22 18 21 23 24 21 21 21 20 20 22 22 19 18 18 18 20 20 21 21 22 22 19 18 20 20 20 21 19 16 13 12 10 10 14 14 13 12 13 14 12 12 14 14 15 16 17 19 20 21 21 21 20
24 26 23 22 23 24 22 22 21 24 26 23 20 21 19 17 18 19 19 20 20 20 16 16 16 16 15 15 14 18 14 10 7 6 5 5 6 6 10 10 10 9 9 11 11 12 14 16 19 18 19 19 17 13
23 26 24 21 21 22 25 27 27 27 28 28 22 19 16 16 17 19 19 17 15 16 17 16 16 12 10 11 12 11 15 12 10 9 7 5 7 10 9 7 7 7 8 8 7 7 10 14 16 19 15 13 13 9
25 25 22 22 23 25 25 25 25 25 26 26 25 19 14 13 14 13 13 17 16 11 11 11 11 10 9 9 10 8 7 11 12 12 10 10 11 9 8 7 5 6 8 5 4 5 6 12 14 12 9 8 7 5
22 22 20 20 22 24 23 22 21 21 22 20 21 19 16 15 11 12 12 14 12 10 9 9 8 9 10 12 9 8 12 7 6 7 11 10 9 7 5 5 5 6 6 4 4 4 8 9 8 7 5 4 2 1
20 20 20 20 20 20 21 20 18 17 19 18 18 17 14 13 9 11 13 12 10 9 9 8 8 9 11 6 6 5 4 5 6 10 8 9 5 5 5 6 7 6 3 2 3 7 6 5 2 1 0 -1 -2 -3

GFSWCAN_sfc_30mbdewp_036.txt.gz
Dewpoint
50 49 49 48 48 48 48 48 48 49 50 51 50 49 49 50 52 50 51 54 48 45 49 49 48 43 44 41 36 41 37 40 36 27 19 24 25 29 30 31 30 27 25 26 28 26 16 31 33 27 28 39 39 38
49 49 48 48 48 48 47 48 48 50 51 51 51 50 51 51 52 53 48 53 53 48 48 49 49 49 50 48 43 42 32 41 37 32 32 35 31 36 32 24 32 24 24 24 27 23 28 35 32 39 40 38 37 37
49 48 48 48 48 48 48 49 49 51 51 51 51 51 51 51 52 52 51 53 49 45 47 47 46 48 48 50 50 39 45 45 44 39 38 37 27 36 29 30 32 30 34 31 31 31 34 38 39 40 39 38 37 37
48 48 48 48 48 48 49 50 51 51 51 51 51 51 51 51 53 53 52 53 46 44 36 44 47 45 47 49 50 48 48 48 45 41 38 37 29 36 30 27 31 27 35 33 33 38 39 39 39 39 38 38 36 35
48 48 48 48 48 49 49 50 51 51 51 51 51 51 50 52 53 53 52 51 52 38 39 42 45 46 45 48 49 48 47 45 42 40 37 36 36 38 37 37 34 36 31 31 30 35 35 36 39 39 37 36 32 30
48 48 48 48 48 49 49 50 50 50 50 51 51 51 50 50 54 51 42 51 50 48 39 36 45 43 43 48 48 48 48 47 43 39 37 40 44 37 35 34 36 39 38 37 36 41 39 39 39 39 36 32 32 23
46 47 48 48 48 48 49 49 50 50 50 51 51 49 49 49 48 46 40 49 50 47 37 39 39 43 43 45 44 45 45 45 44 41 40 39 39 40 35 33 34 36 39 40 39 38 38 38 37 38 35 29 20 19
45 46 46 47 48 48 48 49 50 50 51 51 51 50 50 50 50 47 49 49 48 42 38 33 36 38 42 41 40 42 40 41 41 41 40 39 38 37 35 37 38 38 39 38 38 38 37 38 38 36 30 19 19 19
45 45 45 45 47 48 48 49 50 50 51 51 51 49 47 47 46 47 48 48 46 41 35 35 28 29 41 39 39 39 39 37 38 39 39 38 35 34 36 38 38 38 38 38 39 37 37 35 31 23 19 20 20 22
45 45 45 45 45 46 48 49 49 50 51 49 48 43 41 44 46 47 43 40 40 41 39 34 36 35 38 36 36 36 36 34 32 33 38 35 34 37 37 38 37 38 39 39 35 30 22 20 20 21 22 24 24 23
44 44 44 45 46 46 47 48 49 49 48 46 43 42 42 44 43 40 37 36 37 36 38 39 37 36 40 34 35 35 33 34 29 30 32 31 31 34 36 36 37 35 35 32 26 23 24 23 21 22 24 24 24 24
43 43 44 45 45 46 46 46 46 44 43 44 42 42 40 38 39 38 36 35 35 34 36 37 37 38 38 38 35 34 32 32 27 35 32 28 32 34 35 36 35 29 23 22 25 24 23 22 21 20 19 19 22 25
43 41 42 43 44 44 44 44 44 44 44 41 38 36 37 34 34 34 31 32 32 33 34 35 35 35 36 36 34 34 31 30 34 30 28 30 33 34 31 26 24 22 22 22 22 22 20 20 21 20 20 23 25 26
43 41 40 40 40 40 42 43 43 41 39 34 34 31 32 29 29 30 31 31 33 34 34 34 32 34 33 34 32 30 31 32 28 25 24 32 35 34 29 24 21 21 22 22 22 23 22 22 22 23 24 25 26 26
43 42 41 41 41 41 40 40 40 39 36 32 32 27 28 30 30 32 33 32 33 35 34 33 32 33 31 30 31 29 26 25 27 25 30 33 34 30 27 26 22 22 23 21 21 21 21 23 23 24 25 26 27 27
42 41 40 41 39 39 40 38 37 35 34 32 32 28 31 30 30 31 32 31 33 33 34 33 31 30 28 29 27 26 25 23 25 31 33 33 31 29 26 25 24 22 21 22 23 24 24 25 24 25 26 27 27 27
42 41 42 42 40 39 38 35 32 32 31 30 30 33 32 31 30 31 32 32 35 33 29 31 26 25 29 27 26 28 25 29 31 31 34 32 28 25 24 25 25 25 25 26 26 26 25 26 26 26 25 26 27 28
40 42 41 40 40 40 36 35 32 29 29 31 30 30 31 32 31 32 33 33 32 31 31 27 29 26 25 23 26 28 30 31 32 32 31 28 25 25 25 24 25 25 24 25 25 25 26 26 26 26 27 27 29 29
40 40 39 39 39 36 31 30 31 27 29 30 30 30 30 31 32 33 32 32 33 32 27 27 23 23 23 26 28 29 29 28 27 27 25 24 25 26 26 26 26 26 26 26 27 27 27 28 28 28 28 28 28 28
38 38 38 38 38 33 28 29 31 28 27 28 30 29 28 28 30 32 31 32 31 30 25 23 26 28 24 25 27 28 31 27 25 24 24 25 26 26 25 25 26 27 28 28 28 28 28 28 29 29 28 29 29 28
37 37 37 37 34 33 31 29 27 27 28 28 28 26 26 29 28 28 28 30 26 27 25 27 28 28 28 28 28 27 27 26 25 24 25 22 25 27 27 28 29 29 28 27 27 28 28 28 28 29 30 30 29 29
36 37 35 35 31 29 27 30 28 28 25 27 29 26 24 23 24 25 27 27 27 27 27 26 26 27 27 27 28 28 27 27 28 27 27 27 26 26 27 27 26 24 26 26 26 26 26 26 27 28 30 30 29 29
36 35 32 31 28 25 25 29 25 25 22 26 28 24 23 23 26 27 23 24 26 28 28 28 27 27 28 27 25 23 25 25 24 24 24 24 24 22 22 22 24 23 20 21 23 23 22 23 24 24 26 26 28 29
36 30 28 28 28 24 27 25 25 24 24 24 24 23 23 23 24 23 22 25 27 26 25 26 27 28 27 24 22 21 21 21 20 21 21 20 20 21 22 22 22 18 17 18 17 16 17 18 19 21 23 27 26 26
27 26 26 23 27 24 22 22 23 22 21 23 22 22 22 22 19 20 20 23 23 22 23 22 23 23 22 21 20 20 20 18 17 18 19 20 19 15 15 15 15 17 14 13 13 13 13 14 15 17 20 22 22 23
22 24 23 22 23 23 20 20 21 21 21 21 21 23 22 21 20 18 21 22 21 22 22 22 20 20 19 18 18 18 16 16 16 15 17 18 15 12 10 10 10 10 12 10 12 10 10 11 12 14 15 17 20 22
21 21 25 25 26 26 23 22 23 21 20 20 21 21 19 16 17 19 20 21 21 22 20 20 19 19 18 19 20 15 12 11 10 10 15 15 12 10 8 7 7 9 9 8 9 9 9 9 10 11 13 15 17 20
23 22 18 23 25 26 23 22 22 20 20 22 20 19 18 16 16 18 19 21 22 20 19 19 19 18 17 18 16 11 8 7 6 6 8 9 8 9 9 8 8 8 7 6 7 8 7 7 8 9 12 14 16 13
23 26 24 22 24 24 23 22 22 25 27 23 18 19 16 15 15 18 18 19 20 18 16 15 12 10 10 11 12 11 7 5 4 3 2 2 2 4 8 6 5 4 4 5 6 6 6 7 9 10 14 10 8 8
23 27 23 22 21 22 23 25 25 26 27 22 19 17 15 14 15 17 15 14 14 13 12 10 7 7 7 8 7 6 9 8 8 7 4 3 5 7 5 3 3 3 4 5 4 3 3 4 7 11 9 9 6 4
26 26 23 23 22 23 24 25 25 25 25 23 19 14 10 11 12 13 13 12 10 9 9 8 8 7 8 7 6 4 5 6 4 5 7 8 7 5 3 3 3 3 4 4 1 2 3 5 6 6 4 3 2 1
21 21 20 19 20 22 23 21 20 20 20 20 17 14 11 9 6 9 12 9 7 7 7 5 5 6 7 6 5 3 3 3 4 6 8 7 4 3 3 3 3 3 1 -2 -1 2 4 2 1 0 -1 -1 -2 -3
18 17 17 17 18 19 18 17 16 18 15 16 15 14 11 9 6 8 11 7 7 6 6 5 4 6 5 3 1 1 2 3 5 5 6 7 5 4 3 3 1 -2 -3 -3 -1 1 -0 -1 -2 -3 -3 -4 -5 -5

GFSWCAN_sfc_30mbdewp_039.txt.gz
Dewpoint
49 48 48 48 48 48 48 48 49 49 51 50 50 50 51 51 52 49 51 53 46 46 48 48 48 43 42 39 35 40 36 38 32 27 20 21 21 29 29 30 31 27 26 27 26 23 15 28 30 27 27 35 38 38
49 48 48 48 47 47 48 49 49 50 51 50 50 51 51 51 52 49 49 54 52 47 47 49 48 49 49 42 42 40 35 38 35 28 27 31 27 33 29 22 32 25 24 22 25 20 28 33 32 37 37 37 39 38
48 48 47 47 47 47 48 48 50 51 51 50 50 51 51 52 52 51 51 51 47 45 46 45 46 48 47 49 48 37 43 43 39 37 36 34 23 34 25 29 31 31 31 27 28 28 30 33 39 40 39 38 38 37
48 47 47 47 47 47 48 49 50 50 51 51 50 51 52 52 52 51 50 51 43 41 40 43 46 44 46 50 50 47 46 44 42 39 36 32 23 34 29 28 31 29 34 32 32 34 39 39 39 39 38 38 37 37
47 47 47 47 48 49 50 50 50 50 51 51 50 50 52 52 51 51 50 50 49 34 38 42 44 45 47 49 48 47 45 43 41 39 37 36 34 35 35 35 33 33 31 29 25 32 34 34 39 38 37 37 36 33
47 47 47 48 49 49 50 50 50 50 51 50 49 49 50 53 52 42 38 49 50 45 39 37 44 43 45 47 47 47 47 44 41 39 38 37 41 37 34 34 36 37 38 34 34 40 38 38 38 39 37 35 32 29
47 47 47 48 49 49 50 50 50 50 51 49 48 48 48 49 49 42 37 47 49 44 36 38 39 41 43 44 43 44 44 44 42 39 38 38 39 39 35 32 33 34 37 39 40 39 38 38 38 38 33 32 25 20
47 47 48 48 49 49 49 50 50 51 51 50 49 49 49 49 48 47 48 46 45 38 36 31 35 38 42 40 40 40 40 40 40 39 39 39 37 36 35 37 38 39 39 39 38 38 37 39 39 36 24 20 19 19
45 46 47 48 48 48 49 50 50 51 51 49 48 47 46 46 45 47 47 46 44 38 31 32 27 28 40 38 37 38 38 37 37 38 38 37 34 33 35 37 38 38 38 38 38 37 37 36 29 22 21 21 21 22
45 45 46 47 48 48 49 50 50 51 49 47 45 41 40 44 45 45 41 39 39 40 38 33 35 35 38 36 36 35 35 33 32 33 37 35 34 36 36 36 38 37 38 39 35 26 24 25 29 30 25 24 23 23
45 45 45 46 47 48 48 49 50 49 48 44 42 41 43 43 43 39 36 35 37 36 38 37 36 36 39 35 35 33 32 32 28 29 32 30 30 33 36 36 35 33 31 29 29 30 32 33 30 25 24 23 22 22
44 45 45 45 46 46 47 47 45 45 44 43 42 42 39 38 39 36 34 35 34 33 36 37 37 38 38 36 34 34 31 32 27 34 31 28 32 34 35 27 26 31 34 36 36 36 31 25 21 19 17 18 20 23
41 42 42 44 45 45 45 44 44 43 43 40 38 38 37 35 34 34 32 32 33 34 35 35 35 35 36 36 34 34 31 29 34 30 29 30 33 30 29 28 31 35 34 30 23 22 21 20 21 20 20 22 23 24
42 42 42 41 42 43 44 44 44 42 38 35 35 34 33 31 30 31 32 32 32 34 34 34 33 34 33 34 33 31 31 32 28 26 25 31 35 36 33 29 24 24 23 23 23 21 21 21 22 23 23 23 24 25
41 41 41 40 40 40 40 41 40 40 36 32 33 28 28 29 31 31 32 32 32 34 34 34 33 33 31 30 31 29 27 25 26 24 29 32 35 31 26 23 22 23 21 21 22 22 22 22 23 23 24 25 26 25
42 41 42 41 40 39 39 37 35 35 33 32 32 28 30 30 29 31 32 31 33 34 34 34 31 29 28 29 27 26 25 22 25 30 33 34 34 29 26 25 23 23 23 24 24 25 25 24 24 25 26 26 25 26
41 40 40 40 40 40 38 32 31 31 30 30 30 33 32 31 30 31 32 32 34 33 30 31 27 26 29 26 25 27 24 27 29 31 34 32 29 25 24 30 28 25 24 24 24 25 25 25 26 25 25 26 26 27
38 39 40 40 39 37 34 33 29 29 29 31 29 30 31 32 31 32 33 32 32 31 30 26 29 26 24 23 24 28 30 29 29 30 32 32 33 31 27 25 26 26 25 26 26 27 27 27 27 27 28 28 28 28
39 39 39 38 38 34 29 31 29 27 29 30 30 30 31 31 31 32 31 31 31 31 28 26 23 23 24 27 24 29 29 29 29 29 27 26 26 26 26 26 27 27 28 28 28 28 28 28 28 28 28 28 27 28
38 37 38 37 36 29 27 29 29 28 27 30 31 28 28 28 30 31 30 30 30 28 23 23 25 27 24 25 28 29 28 27 26 24 25 25 27 27 27 27 27 27 26 26 27 26 26 26 26 26 26 26 26 26
35 36 37 35 32 31 29 28 27 28 28 28 29 27 27 29 28 27 27 29 25 26 25 27 27 28 28 28 27 27 26 26 25 24 25 26 27 26 23 24 25 24 24 23 22 22 21 21 22 22 22 23 23 24
36 37 34 33 28 26 27 29 27 28 26 28 26 25 24 23 24 25 27 26 25 26 26 26 27 27 27 26 26 27 27 26 25 25 25 25 21 19 21 23 22 20 19 19 19 19 18 18 18 18 19 20 23 23
36 35 32 31 25 23 26 29 24 24 22 27 27 23 24 23 25 27 23 23 27 27 27 28 27 26 24 22 21 20 21 22 21 20 20 21 22 22 21 20 18 15 13 14 16 15 14 14 14 14 16 16 18 20
34 29 27 26 25 23 26 25 25 24 25 26 24 21 22 23 25 23 21 24 25 25 25 27 26 24 23 22 20 18 17 19 20 19 20 20 19 17 17 16 16 14 11 10 10 11 11 10 10 11 12 13 13 15
24 24 24 23 25 23 22 22 22 22 21 20 21 21 22 21 19 19 20 22 22 22 23 23 23 23 21 20 19 17 15 17 18 17 17 15 11 10 10 11 12 12 9 7 5 6 7 7 7 7 8 10 10 12
21 23 22 21 22 22 20 19 20 21 20 20 20 21 20 19 18 17 20 21 21 21 20 21 20 18 18 18 17 13 12 13 15 14 14 11 9 6 5 4 4 4 7 7 5 3 4 4 4 4 5 7 8 10
19 20 24 26 26 26 22 22 22 22 20 20 21 21 19 15 15 17 19 20 20 19 21 21 19 18 18 15 13 10 9 8 9 12 13 11 9 8 6 4 3 5 6 5 4 3 2 3 2 3 3 5 7 10
23 23 21 22 24 26 22 22 22 21 20 21 20 18 17 14 14 16 18 20 20 19 17 16 16 16 15 13 9 7 6 4 9 10 7 7 5 7 6 5 4 5 3 3 3 3 4 3 3 4 5 7 6 7
23 25 23 22 24 24 23 22 23 25 26 25 20 17 14 14 13 16 17 18 19 16 12 11 10 10 10 10 8 7 6 4 2 1 1 0 1 3 5 1 1 1 1 2 3 4 6 7 7 8 10 7 6 4
23 27 23 22 21 21 21 24 23 26 23 20 17 15 13 12 12 14 14 14 12 10 8 6 5 6 6 5 4 5 5 4 4 4 2 1 3 5 1 2 1 1 1 1 0 -1 1 2 2 2 1 1 1 0
25 25 23 22 20 22 24 25 26 27 25 19 15 11 9 10 11 11 11 9 9 7 7 6 5 4 5 4 4 3 3 2 3 4 4 5 4 2 2 1 1 -1 -1 -3 -3 -2 -1 -0 -2 -3 -3 -4 -4 -3
20 20 20 18 19 21 21 21 20 20 21 19 14 10 8 6 5 7 10 7 6 5 4 2 3 5 5 4 2 1 2 2 3 3 4 5 4 3 1 0 -0 -3 -5 -5 -4 -2 -3 -4 -4 -5 -6 -6 -6 -6
17 16 15 17 17 17 16 14 13 16 14 13 11 10 7 6 5 7 8 4 5 4 3 3 3 3 3 1 -0 -0 1 1 1 3 4 5 4 2 -0 -2 -2 -4 -5 -6 -5 -4 -4 -5 -6 -6 -7 -7 -8 -8

GFSWCAN_sfc_30mbdewp_042.txt.gz
Dewpoint
48 48 48 48 48 47 47 47 48 50 49 49 50 50 51 51 52 52 52 53 46 46 47 48 48 41 40 39 34 40 36 36 31 27 23 20 19 26 26 28 30 25 25 25 24 22 13 25 30 25 26 31 34 37
48 48 48 47 47 47 47 48 49 50 50 50 51 51 51 52 51 53 49 53 51 47 47 48 47 47 48 40 41 40 35 37 34 29 23 26 22 32 28 19 32 24 25 22 25 20 26 29 31 35 35 34 37 37
47 47 47 47 47 47 48 49 50 50 50 51 51 51 52 51 50 51 51 48 47 45 45 45 45 47 46 49 46 36 40 40 36 35 31 30 18 32 20 26 29 31 30 26 27 25 29 30 34 38 39 37 38 38
47 47 46 46 47 48 49 50 50 50 50 50 51 51 52 52 51 50 48 49 43 43 40 43 46 44 47 50 49 46 43 41 39 37 32 29 20 32 27 28 29 30 32 29 30 31 35 36 38 37 39 38 38 37
46 46 46 46 47 49 50 50 50 50 49 50 51 51 50 50 50 50 49 49 47 32 39 41 43 44 47 48 46 44 42 41 39 37 35 31 31 33 33 33 30 32 28 26 22 28 30 30 37 39 38 37 37 35
47 47 47 48 49 50 50 50 50 49 48 49 50 51 51 50 46 39 37 48 48 44 40 38 42 42 44 45 45 45 45 42 40 39 37 36 40 35 33 33 34 36 36 34 31 38 37 38 38 38 38 37 35 27
47 47 48 49 50 50 50 50 50 48 47 48 48 49 48 48 47 38 35 46 45 43 36 37 38 40 41 43 42 42 43 42 41 39 37 38 39 38 35 32 33 36 37 39 39 39 38 38 38 37 35 29 24 22
47 48 48 49 50 50 50 50 50 49 49 49 49 48 48 48 47 47 47 45 44 35 34 30 34 38 41 40 40 40 40 39 39 38 37 37 37 36 35 37 38 39 38 38 38 37 38 39 32 25 22 22 22 23
47 48 48 49 50 49 49 50 50 49 48 47 47 46 45 45 44 47 46 44 43 35 28 29 25 28 40 37 36 38 37 38 37 37 37 37 34 33 35 36 37 38 38 38 36 36 31 25 22 24 26 28 30 28
47 48 48 48 49 50 50 50 50 48 47 45 43 40 40 44 44 43 39 37 38 39 37 31 34 35 38 36 36 34 35 33 32 32 37 35 34 35 35 35 36 37 37 35 29 27 30 32 33 34 33 28 24 23
45 46 47 48 49 49 50 50 48 48 46 43 42 41 44 43 41 38 35 34 35 35 36 35 35 35 38 36 35 32 31 32 28 28 32 29 29 33 31 30 32 32 32 33 34 35 36 35 32 27 24 23 21 21
44 45 46 46 47 48 48 47 46 45 43 42 43 41 39 38 38 34 33 34 33 33 36 37 36 37 37 35 33 34 29 30 26 33 30 27 32 30 29 34 36 36 36 36 36 35 35 30 24 20 17 17 19 22
43 43 44 44 44 45 44 44 43 42 42 39 38 38 36 35 33 32 30 32 32 34 35 35 35 35 36 35 33 32 30 28 33 30 28 30 28 28 34 35 34 34 33 28 23 22 21 20 21 20 20 21 23 23
42 42 42 42 43 44 44 43 43 39 38 36 36 35 33 32 31 32 32 33 32 33 34 35 33 34 33 34 33 31 32 32 28 26 25 31 33 33 35 32 28 24 23 22 21 21 21 21 21 23 23 23 23 24
41 41 41 42 42 41 41 40 41 39 36 33 32 29 28 29 31 31 32 32 32 34 34 34 33 33 32 31 31 29 27 24 25 23 28 32 35 31 27 24 23 22 22 22 23 23 22 23 23 23 24 25 25 25
40 40 39 41 41 40 39 37 36 37 34 32 31 28 30 29 29 31 32 31 33 34 35 34 31 29 28 28 27 25 24 22 24 29 32 34 31 27 24 24 23 24 23 24 24 24 24 24 24 25 26 26 26 26
39 38 40 40 40 37 36 31 32 32 32 31 29 32 32 31 30 31 32 32 34 33 30 30 27 26 28 26 25 26 23 27 30 32 33 32 28 25 25 30 29 25 25 25 26 27 27 27 27 27 27 28 28 27
37 38 40 39 38 34 34 30 29 29 28 30 28 29 30 31 31 31 31 32 32 31 30 28 29 26 24 23 23 27 30 31 33 32 33 29 28 32 31 26 26 26 27 28 28 28 27 27 26 26 26 26 26 24
37 38 39 38 35 31 29 30 29 27 28 30 30 30 30 30 31 31 30 30 30 30 28 24 22 23 25 27 25 28 29 29 29 31 31 31 30 27 27 28 27 27 26 26 26 25 25 25 24 23 22 22 21 22
36 37 38 36 33 28 27 28 29 28 27 29 30 28 28 29 30 30 29 29 29 25 22 23 25 26 24 26 28 28 29 28 28 25 25 27 27 25 24 24 24 25 23 22 21 20 19 19 19 18 17 18 19 19
34 36 36 32 29 29 28 27 27 28 28 27 29 28 27 29 27 26 26 27 24 25 25 27 26 27 27 27 27 27 26 26 25 24 25 24 22 22 23 23 22 20 18 17 17 17 17 16 15 15 14 15 16 16
34 35 33 31 25 25 27 28 27 27 28 27 26 25 24 24 24 25 27 25 25 25 26 26 27 27 25 24 24 24 24 23 23 22 22 21 20 21 20 17 14 13 13 13 13 13 13 13 12 11 10 11 12 13
35 32 30 26 24 24 26 28 24 24 22 26 26 22 23 23 26 26 22 24 26 26 27 26 25 24 22 20 18 19 21 19 19 20 21 20 19 19 17 15 13 9 7 8 9 8 8 9 8 7 7 7 7 8
31 28 26 25 23 23 23 24 25 24 27 25 23 20 21 23 25 23 20 24 24 25 27 25 23 22 21 18 15 15 18 19 18 18 19 17 15 14 14 14 12 9 6 6 5 4 4 3 4 4 4 4 4 6
21 23 22 21 22 21 20 21 21 22 20 21 21 20 21 21 19 18 19 21 21 21 23 25 25 23 21 19 16 12 14 18 17 15 13 9 7 6 6 7 8 8 7 4 2 1 1 1 2 2 2 2 2 3
20 22 21 20 20 20 19 18 19 20 19 20 21 20 19 19 17 15 19 20 20 19 19 20 19 18 18 18 15 11 9 12 15 12 11 8 6 3 2 1 1 1 5 5 2 -0 -1 0 1 0 0 1 3 5
17 19 23 26 25 25 21 21 21 21 20 19 20 20 19 15 14 16 19 19 18 19 19 20 20 18 14 12 9 8 8 11 12 12 10 9 8 5 3 1 0 2 5 4 1 -1 -2 -1 -0 1 1 2 4 4
22 22 19 21 23 25 22 21 21 20 21 22 21 18 17 13 13 15 17 18 17 17 15 14 14 13 11 9 8 6 7 10 9 8 7 6 5 5 4 2 1 3 2 0 -0 -1 -0 1 2 2 4 4 3 2
22 24 23 21 23 23 22 22 22 24 25 23 19 15 12 12 11 13 15 17 17 14 11 10 9 9 8 6 5 4 3 2 1 -1 -1 -1 -0 1 3 0 -1 -1 -1 -2 -1 1 4 5 4 2 -1 0 1 -1
22 25 22 21 20 19 21 23 23 23 21 19 17 14 12 10 11 13 14 13 10 8 6 6 5 6 5 4 4 4 2 1 3 2 1 0 1 3 1 -0 -0 -1 -3 -5 -5 -4 -2 -2 -4 -5 -6 -6 -6 -6
24 24 22 21 19 21 23 25 26 25 21 15 12 9 8 9 10 9 8 7 6 5 5 4 4 1 3 3 2 2 2 0 -0 1 1 1 1 1 1 -0 -2 -4 -6 -7 -6 -5 -5 -5 -7 -7 -7 -7 -8 -8
19 18 19 18 18 19 18 19 18 18 19 16 10 8 6 5 4 6 6 6 5 4 2 0 2 4 3 1 -0 -1 0 1 2 2 2 2 2 2 -0 -2 -4 -5 -6 -7 -7 -6 -6 -6 -7 -8 -9 -9 -10 -10
15 15 15 16 16 16 12 11 11 13 10 10 8 6 4 4 3 6 4 1 3 2 1 1 2 1 2 1 -1 -1 -1 -1 -2 -1 1 2 1 1 -1 -4 -5 -6 -5 -6 -7 -8 -7 -7 -8 -9 -10 -11 -11 -13

GFSWCAN_sfc_30mbdewp_045.txt.gz
Dewpoint
48 48 48 48 47 47 47 47 47 47 48 49 48 47 48 49 51 53 52 52 47 45 47 48 46 39 39 39 35 39 36 36 30 28 26 23 21 23 23 26 28 24 24 25 23 22 13 24 30 24 26 29 33 36
48 48 47 47 47 46 46 47 48 49 49 49 49 49 49 49 50 53 49 52 51 47 46 47 47 47 47 40 41 40 36 36 34 30 25 26 25 30 26 20 32 23 26 22 24 19 25 26 31 34 34 32 34 36
47 47 46 46 46 47 47 48 50 50 50 50 50 51 49 49 52 52 51 50 48 45 44 45 44 46 48 48 46 36 39 38 34 34 28 27 17 30 21 25 28 31 30 27 26 25 28 29 31 35 38 37 37 38
46 46 46 46 47 48 49 50 50 50 50 50 51 51 51 51 51 50 47 48 47 44 41 42 45 46 47 49 48 44 41 39 38 36 30 27 19 31 25 26 27 29 31 29 29 29 31 32 36 36 37 39 38 38
46 46 46 47 48 49 49 49 49 50 50 50 51 51 51 50 49 49 48 48 47 40 40 41 44 44 46 46 44 42 40 38 37 35 31 27 31 32 33 31 28 32 29 26 23 28 28 30 37 38 38 38 37 34
46 46 47 48 49 49 49 49 48 50 50 50 50 50 49 49 47 41 40 47 45 44 40 39 42 42 43 44 44 44 43 41 40 39 36 36 39 35 32 31 33 34 36 35 32 38 36 38 38 38 38 37 31 28
47 48 49 49 49 49 49 48 47 48 49 48 48 49 48 46 44 34 35 44 44 43 37 38 38 39 41 43 42 42 42 41 41 38 37 38 38 37 34 30 34 38 39 39 39 38 37 38 38 34 29 26 25 24
48 49 49 49 49 50 49 48 48 48 48 48 47 47 47 47 47 45 46 44 43 34 34 32 34 39 41 40 39 40 39 39 39 38 37 36 37 36 35 36 37 38 38 38 37 38 36 29 25 23 24 27 31 33
48 49 49 48 50 50 50 49 48 47 47 47 46 46 45 45 45 46 45 43 42 33 26 28 26 30 40 36 37 38 37 37 36 36 36 37 34 33 34 35 35 36 37 35 28 26 25 27 30 33 34 35 34 32
48 48 49 49 49 50 50 49 47 46 46 45 43 39 39 44 44 43 38 35 36 37 35 31 35 34 38 37 35 35 34 34 33 33 37 35 34 34 30 31 32 36 36 30 30 30 32 33 35 34 32 32 30 25
48 48 49 49 50 50 50 48 47 47 44 42 41 42 44 43 40 36 34 33 34 33 35 34 35 34 37 36 33 32 32 31 28 28 32 30 29 32 33 34 34 34 34 34 34 35 36 35 31 30 25 24 22 21
45 46 47 47 48 48 48 48 46 44 43 43 43 41 39 37 36 32 32 34 33 32 35 36 36 37 36 35 33 33 29 30 26 32 29 26 30 31 35 35 36 36 36 35 35 34 33 29 27 22 18 18 19 21
43 44 44 44 45 45 44 45 44 43 41 41 39 38 36 35 32 29 28 31 31 34 35 35 34 35 35 35 33 31 29 28 32 29 28 30 28 34 34 33 33 32 29 26 24 23 21 21 22 22 21 23 23 24
42 42 43 43 43 43 42 41 41 39 39 37 37 33 32 32 32 33 32 33 32 34 35 35 33 34 34 33 33 31 31 32 27 25 26 29 31 33 33 30 26 23 23 22 21 21 21 22 23 23 23 24 24 24
41 41 41 42 42 41 40 40 39 38 36 34 32 29 29 29 31 31 32 32 32 34 34 34 34 34 32 31 31 29 28 25 25 24 29 32 33 34 30 26 23 22 22 23 24 23 23 24 24 25 26 27 27 25
40 39 39 41 41 40 39 38 38 37 34 32 30 28 30 30 30 31 32 31 33 34 35 35 31 30 28 28 27 26 25 22 24 29 31 32 32 29 25 24 24 24 24 25 25 26 27 27 26 26 26 26 25 25
38 37 39 40 38 36 36 36 35 32 32 31 28 32 31 31 30 31 32 32 34 33 30 30 28 26 28 25 24 26 23 25 30 31 32 32 30 25 25 28 26 26 27 28 28 27 26 26 25 22 20 20 21 22
36 38 39 38 37 34 33 31 31 31 27 29 28 29 30 31 31 30 30 31 32 31 31 28 28 26 24 22 23 26 30 31 32 33 32 31 30 31 28 27 28 28 27 25 25 23 23 21 19 18 17 16 17 18
37 37 37 36 34 30 30 29 29 27 28 30 30 30 30 29 30 30 30 30 30 29 28 24 23 24 25 27 26 29 30 30 30 30 29 30 30 29 27 26 25 23 22 21 19 18 19 19 16 14 14 13 13 15
36 36 36 34 32 28 27 27 29 28 27 29 30 28 28 29 30 29 28 28 27 24 22 24 25 25 24 26 28 28 29 30 28 26 25 25 24 23 23 22 21 19 16 16 16 16 14 12 12 11 10 9 10 10
34 34 34 30 29 29 28 26 27 29 28 27 29 28 28 29 27 26 25 26 24 25 25 25 24 25 26 26 26 26 26 26 25 25 25 22 23 21 18 17 15 13 11 11 11 10 10 9 9 8 8 7 8 9
34 34 29 27 25 26 27 28 26 28 27 27 26 26 26 24 24 25 26 25 24 25 25 26 26 25 24 23 23 23 23 23 23 22 21 21 21 18 14 12 10 10 9 7 7 6 6 6 6 6 6 6 6 6
32 29 27 24 23 24 25 28 23 25 22 25 25 22 23 24 26 26 22 25 25 26 27 25 24 22 20 19 19 19 20 20 20 19 19 19 18 16 14 11 8 5 5 4 5 4 4 3 4 3 4 4 4 4
28 26 24 22 22 22 21 23 25 25 27 25 21 20 21 23 25 22 20 23 24 26 25 23 22 19 17 15 15 17 18 17 17 16 17 15 12 11 11 10 8 6 4 4 3 2 1 1 1 2 2 2 2 3
19 21 20 20 20 19 19 19 20 20 20 21 20 19 21 20 18 17 18 20 20 20 22 25 25 24 18 14 13 12 16 17 13 10 9 8 8 6 5 4 5 5 5 3 2 1 0 -0 0 0 1 1 1 3
17 21 20 19 20 19 18 18 18 19 19 20 21 19 18 18 15 14 16 17 18 18 18 20 19 17 16 16 14 12 10 13 13 10 8 6 5 3 2 0 0 1 4 3 1 -0 -0 -1 -0 -0 0 2 2 2
17 20 21 25 23 22 19 18 19 19 19 19 20 19 19 14 12 14 17 16 16 16 17 18 19 16 12 11 8 10 12 12 12 10 9 7 5 3 2 0 -0 2 4 3 1 -1 -2 -2 -2 -1 0 2 2 1
21 21 19 20 21 22 21 20 20 19 20 21 20 17 16 13 11 14 15 16 16 14 13 12 12 11 10 8 7 10 10 9 8 7 6 6 5 4 3 2 1 2 0 -1 -1 -2 -2 -2 -1 0 0 -0 -1 -0
21 22 22 20 21 21 21 20 20 22 22 23 18 14 10 10 10 12 14 15 15 13 11 9 7 7 6 5 3 3 4 4 3 -1 -2 -2 -1 1 3 2 0 -1 -2 -3 -3 -0 2 4 2 0 -3 -4 -4 -5
21 23 21 19 18 18 20 22 22 20 19 17 16 13 10 9 9 11 12 11 9 7 6 6 5 6 4 4 3 3 2 1 2 1 -0 -0 0 2 1 0 -0 -1 -4 -5 -5 -4 -3 -3 -5 -6 -7 -7 -7 -8
21 22 21 19 18 20 20 22 25 21 17 13 11 9 7 8 9 7 6 5 5 6 5 4 3 0 3 2 2 1 2 1 -1 -0 -0 -0 -1 0 0 -0 -2 -5 -6 -5 -6 -6 -6 -6 -7 -8 -8 -8 -9 -10
17 16 18 17 18 16 14 16 16 16 16 12 7 6 5 5 3 5 4 5 2 1 -0 0 3 4 2 0 -2 -2 -1 0 1 0 -0 -0 0 1 -0 -1 -4 -6 -5 -5 -6 -7 -8 -7 -8 -8 -9 -10 -11 -12
13 14 13 14 15 14 11 10 10 11 8 8 5 4 3 3 2 5 3 1 2 1 1 2 2 -0 0 0 -1 -1 -1 -1 -3 -3 -2 -2 -2 -1 -1 -3 -5 -6 -5 -6 -6 -8 -7 -8 -8 -9 -10 -11 -12 -13

GFSWCAN_sfc_30mbdewp_048.txt.gz
Dewpoint
43 44 44 44 45 48 48 48 47 47 47 47 47 47 47 48 50 54 54 54 50 48 47 48 45 41 41 41 39 39 37 38 37 31 31 32 32 27 25 25 29 28 30 29 29 26 19 24 30 25 30 32 33 36
44 43 44 46 47 48 47 47 47 46 46 46 47 47 47 49 50 54 52 53 53 48 47 48 48 49 48 43 41 40 40 38 38 37 35 35 30 31 32 29 31 27 29 28 27 25 29 28 32 35 35 34 34 35
46 47 47 47 47 47 46 46 47 47 48 48 47 47 48 49 51 53 53 53 51 49 46 47 46 47 49 49 49 40 42 41 38 40 38 37 24 35 28 30 30 31 31 30 28 25 28 29 30 31 32 35 36 38
46 46 46 46 46 47 47 48 48 48 48 48 48 48 49 49 51 52 52 52 51 48 43 45 47 47 47 49 49 46 44 42 39 40 37 32 28 33 31 30 30 30 31 30 30 28 29 31 35 37 38 39 39 39
46 46 46 47 47 48 49 49 49 49 49 49 49 49 48 49 50 51 50 50 51 45 42 45 46 46 46 45 44 43 41 39 41 37 31 34 35 36 36 34 32 31 29 30 29 31 31 34 39 40 39 39 39 36
47 47 48 48 48 48 48 49 49 50 50 50 50 49 50 49 48 49 42 47 47 49 45 41 44 45 45 46 45 44 44 44 44 42 38 39 39 39 34 32 35 35 37 36 33 39 39 40 39 39 39 37 34 32
48 48 48 48 47 47 48 48 49 49 49 49 49 49 47 46 47 41 40 46 45 46 43 40 43 43 44 45 44 45 45 44 44 41 39 40 39 39 36 33 37 39 39 39 39 39 39 38 35 34 32 28 29 32
48 49 48 48 47 47 48 47 48 48 48 48 48 47 46 46 47 45 44 44 44 41 42 35 38 43 43 42 40 42 42 43 40 39 39 38 39 39 36 37 36 38 39 38 37 37 34 30 28 28 31 34 35 34
48 48 48 49 48 48 47 47 47 47 47 47 46 47 49 47 48 46 44 43 44 41 27 32 36 36 41 38 39 41 41 36 39 37 37 39 34 35 35 34 35 36 37 33 32 30 29 30 32 33 35 35 33 32
48 49 49 49 49 48 47 47 47 45 45 45 46 41 41 46 44 44 42 39 38 39 38 33 37 35 39 39 36 38 37 35 33 35 38 36 36 32 32 33 35 37 37 34 31 31 33 34 34 32 31 29 29 29
48 48 48 49 49 48 47 46 45 46 45 44 43 42 46 43 42 38 33 32 36 32 37 36 37 35 38 37 34 35 33 33 32 33 34 33 32 32 34 35 35 34 33 33 33 33 34 32 29 29 25 25 22 21
47 48 48 48 48 48 47 44 45 46 46 45 45 44 42 40 37 32 32 35 34 32 36 36 36 37 36 38 35 34 31 32 30 33 31 28 31 33 34 35 36 36 35 33 33 33 31 28 23 21 19 21 23 24
43 44 45 45 45 46 46 42 42 42 43 45 41 37 38 36 30 29 26 31 32 34 35 36 34 36 36 37 33 32 30 30 33 30 28 30 31 35 35 34 32 32 32 30 25 21 22 22 25 25 26 26 27 27
42 43 43 42 42 43 43 43 42 42 42 38 37 33 33 32 32 33 33 34 32 34 36 36 34 35 35 34 34 31 31 32 28 27 27 29 33 33 32 29 24 23 25 23 22 24 26 26 26 28 29 29 27 25
41 41 42 42 41 41 40 40 40 40 38 34 34 31 30 30 31 31 32 33 33 35 36 36 35 37 33 32 32 31 28 27 28 27 30 32 33 33 28 24 23 24 25 25 25 26 27 28 29 28 26 23 23 24
40 39 39 41 40 40 40 40 39 39 35 32 31 29 30 30 30 31 32 31 33 34 36 36 33 32 30 31 30 29 28 26 28 29 32 33 33 30 26 25 25 25 25 27 28 28 27 26 24 21 21 20 21 21
37 37 39 39 38 37 39 37 35 33 32 31 29 32 32 31 30 31 32 31 34 34 31 32 30 28 30 28 27 28 28 29 30 30 32 34 32 27 25 26 28 28 28 28 26 24 23 21 20 16 13 12 12 13
36 37 37 37 36 35 33 35 33 32 28 30 29 29 30 31 31 30 31 32 33 32 32 31 31 28 27 25 26 29 30 31 32 31 31 32 28 29 28 28 28 27 25 23 21 20 19 17 14 11 9 8 7 8
36 36 36 35 35 33 30 30 33 28 29 30 30 31 31 30 30 31 31 32 32 31 31 29 28 27 28 28 30 31 32 31 30 29 29 30 31 30 29 27 26 22 19 17 17 16 14 11 10 7 7 7 8 9
36 35 35 33 34 30 28 28 32 29 28 29 31 30 30 30 31 30 31 30 29 30 29 28 27 27 28 29 31 32 33 32 30 27 26 27 28 27 26 23 19 17 15 14 12 10 9 8 7 7 8 8 9 9
35 35 33 33 32 31 29 28 28 30 29 27 30 30 29 31 30 30 29 30 29 26 25 25 25 26 26 27 28 29 31 30 28 28 26 24 23 20 18 16 14 12 12 12 9 8 9 8 7 8 9 10 10 11
34 33 31 30 29 29 29 29 28 30 28 29 28 28 28 27 27 28 28 27 25 25 26 27 25 25 24 23 24 25 26 26 25 24 24 22 19 18 15 13 13 12 9 8 8 8 8 6 7 8 9 9 9 10
32 31 28 28 26 26 26 29 25 27 24 26 26 24 25 25 27 27 24 25 25 27 27 25 24 23 21 20 20 21 22 22 22 22 21 20 17 15 13 10 8 9 8 5 5 6 7 5 6 7 8 8 9 8
28 25 24 24 25 23 25 24 26 26 26 24 21 21 22 24 26 22 21 23 24 26 24 23 23 20 19 18 18 17 18 18 17 17 16 15 13 12 11 8 7 6 5 5 6 6 6 6 6 7 7 7 7 6
19 21 22 20 23 21 21 21 21 22 21 23 22 21 22 24 20 19 20 19 20 21 24 26 26 24 20 18 18 17 17 14 13 11 10 11 10 8 5 5 6 5 6 7 6 5 5 5 5 5 5 5 4 4
18 22 21 21 22 21 20 19 20 20 21 21 22 21 22 20 17 15 15 17 18 18 20 22 21 19 18 19 17 15 14 14 12 10 8 7 7 7 6 5 4 5 5 6 5 4 4 3 3 3 4 4 4 3
19 20 23 25 23 22 22 22 22 22 21 20 21 21 20 16 13 13 16 16 17 17 17 19 19 18 15 13 12 13 13 13 12 10 8 6 6 6 6 5 4 4 4 4 4 3 2 2 3 3 3 4 4 3
22 23 20 22 23 23 21 21 21 21 22 23 22 17 16 14 11 14 15 17 17 16 14 13 13 12 10 10 12 12 11 10 10 9 8 7 7 7 6 6 4 4 3 3 2 2 2 3 3 3 3 2 2 2
22 24 23 20 21 22 21 21 21 22 21 24 19 14 11 10 10 12 14 16 17 16 13 11 10 11 9 8 8 9 9 9 6 2 2 4 4 5 6 5 5 4 3 2 1 1 3 3 3 2 1 0 0 0
22 24 22 20 18 18 21 23 21 20 18 17 14 12 10 9 9 12 13 12 11 9 9 9 9 10 8 8 7 7 6 6 6 5 3 3 3 5 5 5 4 4 2 2 1 0 0 1 0 0 -1 -1 -1 -2
22 24 22 20 19 21 21 23 22 20 17 13 13 11 8 8 9 9 8 8 9 9 8 7 6 7 6 6 6 5 5 5 3 4 4 4 4 4 4 4 4 3 2 1 0 -1 -2 -2 -1 -2 -2 -3 -4 -5
19 17 18 18 18 18 17 19 19 18 16 13 10 9 9 8 5 7 7 8 7 6 3 6 6 6 6 6 4 4 1 4 4 4 3 4 4 5 4 4 3 2 1 0 -0 -1 -2 -3 -3 -3 -3 -4 -5 -7
16 17 16 16 17 17 13 13 13 13 12 10 8 7 6 6 3 6 7 6 6 6 5 6 6 6 4 4 4 4 2 4 2 1 1 1 0 2 2 3 3 2 0 -0 -1 -2 -3 -3 -4 -4 -5 -7 -8 -8

GFSWCAN_sfc_30mbdewp_051.txt.gz
Dewpoint
40 40 40 41 41 42 43 44 44 45 46 47 47 48 48 48 48 49 51 56 53 42 41 45 37 32 33 35 40 40 38 40 38 36 35 37 37 31 28 26 32 31 34 32 35 32 22 24 26 23 31 29 30 30
40 40 40 41 42 43 44 45 45 46 47 47 46 47 47 47 48 49 51 55 54 47 47 50 50 49 47 44 37 40 34 38 39 37 41 43 36 35 35 28 28 28 30 30 29 27 28 26 26 34 33 32 33 34
40 41 43 44 44 45 43 43 47 47 47 47 47 47 47 47 49 50 53 53 51 49 47 46 46 49 48 50 51 39 43 40 40 44 41 42 34 38 32 34 29 29 31 29 29 23 24 27 29 31 32 33 34 36
43 43 44 43 43 44 47 47 47 47 47 47 46 46 47 48 50 52 54 54 52 49 45 46 49 47 48 49 48 49 45 45 43 43 44 37 37 36 36 33 29 30 31 27 27 25 25 30 36 38 38 39 39 39
44 43 43 44 46 46 46 46 46 46 46 46 46 47 47 49 51 55 54 53 54 46 44 46 47 47 47 47 46 45 44 42 42 41 34 40 38 38 37 34 32 30 27 30 30 34 33 37 40 40 39 39 38 37
46 46 46 46 46 46 46 46 46 47 47 47 47 47 49 50 53 52 46 51 51 51 47 43 47 45 46 46 45 44 44 44 46 43 43 39 39 40 37 32 35 34 35 36 34 38 39 40 39 39 38 35 35 33
46 46 46 47 47 48 48 48 48 48 48 48 48 48 49 51 52 49 42 47 49 50 44 42 43 46 46 46 45 45 46 47 46 44 41 42 40 40 39 34 36 38 38 39 39 39 39 38 35 34 31 31 33 31
46 46 47 47 47 48 48 48 48 48 48 48 48 48 48 47 46 47 44 45 46 46 46 40 41 44 45 45 44 45 45 45 43 41 42 41 40 41 39 38 37 38 38 37 36 36 34 32 33 34 35 35 35 33
47 46 46 46 46 47 48 48 48 48 47 47 47 48 49 49 47 45 43 45 47 44 34 39 39 38 43 41 42 43 44 37 41 39 40 40 38 37 37 36 36 36 37 34 33 32 32 33 33 34 35 32 30 28
47 47 47 47 46 45 46 46 47 47 47 48 46 43 43 47 44 44 44 45 43 43 41 36 40 38 40 41 38 39 39 37 35 36 39 38 36 33 34 35 36 38 37 35 34 33 33 33 32 31 28 27 27 26
47 47 48 46 44 44 45 45 45 46 46 48 46 44 47 44 45 42 33 35 41 34 38 38 38 38 40 38 35 38 35 36 33 35 34 33 33 33 35 36 36 36 35 34 34 34 33 31 28 25 22 20 21 22
47 46 46 46 43 43 43 45 46 46 46 47 47 46 45 43 38 32 32 36 37 34 37 36 37 38 38 40 36 36 33 34 31 35 33 30 32 34 35 35 35 34 34 34 33 31 28 24 21 20 22 24 26 27
43 43 44 44 44 44 43 42 42 43 46 47 42 38 40 38 31 30 26 32 33 35 36 37 34 37 37 38 35 34 32 32 34 30 29 31 33 34 35 34 33 32 31 29 24 22 23 25 27 26 27 29 30 28
42 42 42 42 43 43 43 42 43 45 43 38 37 33 34 33 33 33 35 34 33 36 38 37 35 36 37 35 35 32 32 32 29 27 29 32 34 35 33 31 30 26 26 23 23 25 26 27 29 30 27 26 26 22
41 41 41 41 42 42 42 42 41 41 39 35 37 31 30 30 31 32 33 34 34 38 38 37 37 37 34 33 34 32 29 28 29 30 32 33 34 32 29 25 24 25 27 26 26 29 31 31 28 25 22 20 22 23
40 39 39 40 41 41 42 41 41 40 36 33 32 30 31 31 31 32 33 32 35 37 40 38 35 33 31 33 31 30 30 28 30 32 33 34 33 31 26 25 24 24 25 27 28 28 27 24 22 20 19 16 18 18
38 37 38 39 39 39 39 38 37 33 32 31 29 32 32 31 30 31 32 32 35 36 33 34 31 30 32 29 28 30 30 31 31 31 34 35 32 28 27 27 28 28 28 27 26 24 22 20 18 15 12 9 8 9
37 36 37 36 37 37 35 36 34 33 29 31 29 29 30 31 31 31 31 32 34 33 34 32 32 30 29 27 27 29 30 31 31 32 34 35 31 28 27 27 29 29 26 24 21 20 18 15 12 10 7 6 7 9
36 36 36 35 36 35 33 33 35 29 29 31 32 32 31 30 32 33 33 34 34 34 34 32 30 29 29 31 31 31 31 31 30 30 31 32 33 31 30 28 25 23 21 19 18 16 13 10 8 7 8 8 10 12
36 35 35 35 35 32 31 32 34 31 29 30 33 31 31 30 32 33 34 32 32 33 30 29 27 27 29 30 33 33 32 30 29 28 28 30 31 30 30 29 27 21 17 14 12 11 10 10 8 8 11 11 12 12
35 34 35 35 33 31 30 29 29 31 31 29 32 31 31 32 32 31 31 32 29 26 25 26 26 27 28 29 32 34 33 32 29 29 27 26 27 24 21 18 17 17 16 16 13 11 12 10 9 10 12 13 12 13
33 34 35 34 33 32 29 30 29 30 29 30 29 29 29 29 29 29 29 27 25 25 27 27 27 26 26 27 28 29 29 29 28 26 24 23 22 20 19 18 17 15 14 12 11 13 11 9 9 11 12 12 11 12
33 33 33 33 28 28 26 29 27 26 26 27 27 26 27 27 27 27 24 25 25 28 28 26 25 24 23 23 24 24 26 25 24 24 23 22 21 19 15 13 14 14 12 8 8 9 10 8 10 9 11 10 11 10
29 29 27 26 27 25 29 25 24 24 25 24 22 21 23 25 25 24 22 23 25 26 25 25 24 24 23 21 19 19 20 21 20 20 19 18 16 14 11 9 9 9 8 8 9 10 10 10 9 10 9 8 9 8
23 23 26 23 26 24 23 22 23 22 21 23 22 21 22 24 20 20 20 20 22 23 26 28 25 25 22 21 21 20 18 18 16 14 14 14 12 10 8 8 8 8 9 10 10 9 9 8 8 8 6 7 6 6
21 23 23 23 23 22 22 20 21 21 22 22 21 23 24 22 19 16 15 18 19 19 19 22 24 21 19 21 19 17 17 17 15 12 10 9 10 11 9 8 8 10 8 9 8 7 7 6 6 5 5 6 6 5
20 22 24 24 23 23 23 23 23 22 20 21 21 21 22 18 14 14 18 17 17 17 18 19 20 18 16 16 16 16 14 13 13 10 9 8 8 9 10 9 7 7 6 7 6 6 5 5 5 5 5 5 5 5
22 23 21 23 23 23 21 21 21 21 22 22 23 18 17 15 12 14 15 17 18 17 15 15 14 14 14 15 16 15 13 12 12 11 10 9 9 9 8 8 7 5 6 6 4 4 4 4 4 4 5 4 4 4
22 24 24 21 21 20 20 22 22 21 21 24 21 16 13 11 12 13 15 17 19 18 15 14 14 15 13 11 11 11 11 11 8 5 5 6 7 9 8 7 6 6 6 5 4 3 3 3 4 4 3 3 3 3
21 25 22 20 19 19 21 24 20 19 19 18 15 11 10 10 12 14 14 14 13 12 12 12 12 12 11 10 9 8 8 7 6 6 5 5 5 6 6 6 6 5 5 5 4 3 3 3 2 3 3 2 2 1
23 24 21 20 20 21 22 24 22 20 17 15 16 13 10 9 11 12 11 12 11 12 11 9 9 9 8 7 8 7 7 7 5 4 4 5 5 5 6 5 5 5 4 4 3 2 2 1 1 1 1 0 -1 -1
21 20 19 18 19 21 23 23 22 19 18 15 12 12 12 11 7 8 9 12 9 8 8 8 8 7 7 7 7 7 4 5 5 4 4 4 4 5 5 5 5 5 4 3 2 2 1 0 -0 -0 -1 -1 -1 -3
19 19 19 18 17 17 17 18 17 14 13 11 10 10 9 9 5 7 9 10 9 8 7 8 8 8 7 6 6 6 5 4 3 4 4 3 2 3 3 4 4 4 3 2 1 1 0 -0 -1 -1 -2 -3 -4 -5

GFSWCAN_sfc_30mbdewp_054.txt.gz
Dewpoint
38 38 38 39 41 42 43 43 44 44 44 45 45 44 45 45 45 48 47 50 50 49 39 39 35 33 34 39 41 41 39 40 42 35 34 37 35 32 26 28 34 34 35 33 36 33 28 26 24 22 32 31 31 29
39 39 40 40 42 43 43 43 43 44 44 45 45 44 44 47 46 47 46 50 52 53 49 51 50 49 48 49 42 43 38 39 42 41 43 44 38 37 35 28 26 27 32 35 34 33 31 24 29 35 32 31 32 35
40 40 41 42 42 42 42 43 43 44 44 44 44 44 46 47 47 48 47 50 55 51 47 45 46 49 49 49 52 42 43 40 40 44 46 45 36 42 33 34 28 29 32 32 31 25 27 26 29 34 35 36 37 38
41 41 41 42 42 42 42 43 44 44 45 45 45 46 47 47 48 48 48 51 55 49 43 46 49 47 48 49 49 50 46 48 48 49 46 38 39 38 39 34 31 32 31 29 27 27 26 36 38 39 39 40 39 38
41 41 41 42 43 43 43 44 44 44 44 46 46 47 47 47 48 49 49 52 56 51 43 46 46 47 46 48 47 47 48 46 46 41 31 41 40 41 39 36 33 31 30 31 33 36 36 39 40 40 39 38 37 35
43 43 44 43 42 40 38 38 41 45 46 47 47 47 47 48 49 49 48 50 54 54 47 42 47 46 45 45 45 45 45 45 47 46 44 41 41 43 37 34 33 35 35 38 37 39 40 39 38 37 35 34 33 31
42 42 42 42 40 42 45 45 44 46 47 47 47 47 47 49 51 48 45 48 48 52 46 42 43 46 47 46 46 47 48 48 46 45 44 42 40 43 39 35 36 37 38 39 39 39 38 38 33 33 33 31 32 33
44 44 44 45 46 46 46 46 46 46 46 46 47 47 48 49 48 49 48 47 47 47 46 40 41 44 46 46 44 46 46 45 44 41 42 42 42 43 38 37 38 38 38 36 36 37 35 34 35 35 36 34 32 31
46 46 47 47 47 47 46 46 47 47 47 47 48 49 50 50 48 47 44 47 51 45 37 38 37 37 44 42 44 43 44 38 43 39 40 42 38 36 38 37 36 37 37 34 33 33 34 35 34 34 32 31 30 28
45 46 46 47 47 47 47 47 47 47 48 48 50 47 46 47 46 45 45 47 43 43 42 39 42 39 41 41 39 40 39 38 36 37 40 38 36 35 35 36 37 37 37 34 34 33 33 33 32 30 28 28 26 25
46 45 45 46 47 47 47 47 47 48 48 49 46 44 46 46 48 43 35 35 39 34 39 40 40 39 42 37 36 39 36 36 32 35 36 33 34 34 36 36 37 36 35 35 35 35 34 32 29 25 22 24 26 27
45 46 45 45 45 46 47 47 47 48 48 47 46 47 47 45 39 33 33 36 38 35 37 38 38 39 39 41 37 37 33 35 31 36 35 30 33 35 36 35 35 35 35 34 33 31 29 25 22 24 25 28 30 30
43 44 44 44 44 44 45 45 45 46 47 46 41 39 40 38 32 30 28 33 32 35 37 37 36 37 38 38 35 35 32 32 35 31 29 33 34 35 35 34 34 34 33 31 25 24 25 28 29 30 29 28 26 24
42 42 42 43 43 43 43 44 45 45 42 38 37 34 35 33 34 33 33 34 34 37 38 37 36 36 37 34 36 31 33 33 29 28 29 33 34 34 33 33 31 27 26 25 25 27 29 29 26 25 25 25 23 21
40 40 41 41 42 42 42 43 43 41 39 35 36 30 29 31 32 32 34 34 35 39 38 37 37 36 35 33 34 32 30 28 29 29 33 35 35 34 33 30 26 27 27 27 29 30 30 29 25 22 20 20 22 21
40 38 38 40 40 40 42 42 41 40 36 33 32 31 32 32 31 32 33 33 35 37 40 39 35 32 32 34 31 31 29 28 31 32 34 35 32 30 27 27 26 26 28 28 29 28 25 23 22 20 17 14 20 17
37 36 38 39 40 39 39 38 37 33 32 31 29 31 32 31 30 31 32 32 35 36 33 35 31 30 33 30 29 31 29 30 31 33 34 34 33 29 27 29 29 29 29 28 27 25 23 20 18 15 12 9 9 13
36 36 37 38 40 38 37 37 35 33 29 31 28 29 30 31 31 30 32 34 36 35 34 32 33 30 30 28 28 30 29 30 32 34 35 35 30 29 28 28 29 29 27 25 23 21 18 17 13 11 9 8 9 12
35 36 36 37 38 36 33 34 36 29 29 31 31 32 31 31 32 34 34 33 34 36 35 34 31 29 29 31 30 29 30 30 29 30 32 34 33 32 32 30 27 25 23 22 21 18 13 11 10 10 11 11 13 14
35 35 36 35 35 34 32 33 36 31 29 30 32 31 31 30 32 34 35 35 33 32 27 26 24 25 28 29 34 33 31 31 30 29 28 30 31 31 30 30 28 24 19 15 14 14 13 13 10 12 13 14 14 14
35 34 36 35 33 33 33 33 31 32 32 30 32 32 31 33 31 31 31 32 28 26 24 27 27 30 32 33 34 34 33 32 31 29 28 29 31 29 27 25 23 21 20 18 16 14 15 12 12 13 14 16 14 14
32 35 37 37 34 32 30 32 33 33 31 31 32 32 30 29 29 29 30 25 24 26 28 29 30 29 29 30 31 31 30 29 28 28 28 26 24 23 22 21 21 19 17 15 15 16 14 11 12 12 13 14 13 13
34 34 34 35 28 28 26 30 28 27 27 28 29 27 27 27 28 28 24 25 26 28 28 28 27 27 27 28 29 29 28 27 27 28 27 25 23 21 20 20 20 17 13 10 11 12 13 10 12 11 12 12 12 12
32 31 28 28 28 25 30 25 25 24 26 25 23 22 24 25 27 25 21 22 26 28 26 26 27 26 25 23 22 23 24 23 23 23 22 20 17 14 12 11 11 11 11 12 13 13 12 12 10 11 11 9 10 10
22 24 27 23 27 24 22 21 23 21 22 24 22 22 23 25 22 21 19 21 20 21 22 27 25 25 22 21 20 21 23 23 20 18 19 16 14 12 10 10 10 10 11 12 11 10 10 10 10 9 7 8 7 7
21 23 22 22 22 22 22 19 20 22 21 21 21 22 26 23 18 15 15 18 17 17 18 20 24 19 17 19 17 16 17 23 18 15 13 13 15 15 12 11 13 11 10 10 9 8 8 8 7 6 6 6 7 8
19 21 23 25 24 24 22 22 24 22 21 22 22 22 23 17 13 16 17 17 16 17 17 18 19 17 16 15 16 17 17 15 13 11 10 10 10 10 11 10 9 7 7 8 7 7 5 6 6 6 6 7 7 8
21 22 19 24 23 23 21 22 21 21 21 22 25 17 15 14 11 15 16 18 18 16 15 15 15 15 15 16 18 18 17 15 13 13 12 11 10 11 10 10 8 7 8 9 6 6 5 5 4 4 6 6 5 6
22 24 24 21 20 21 22 22 21 20 20 22 20 15 12 11 14 16 17 18 19 18 16 16 16 16 15 13 13 12 11 12 9 7 7 9 11 11 9 8 8 8 9 7 8 7 6 5 5 5 4 4 4 5
22 26 21 19 20 19 21 21 18 21 22 17 13 11 10 11 14 16 15 15 14 13 14 14 14 13 14 11 10 9 9 7 7 7 6 5 6 7 8 9 8 8 8 6 6 5 5 5 4 4 5 6 5 5
25 25 22 21 19 22 22 22 21 19 16 16 16 11 9 10 12 12 12 15 13 16 15 10 9 9 8 8 8 8 9 8 6 5 4 5 6 7 9 8 8 7 6 6 5 4 4 4 3 3 2 2 2 2
20 20 21 20 19 23 26 25 23 19 19 15 14 14 15 13 8 8 10 14 11 9 9 10 8 7 8 9 10 10 5 7 7 5 5 4 4 5 5 6 6 7 7 6 4 4 4 3 3 2 1 1 2 1
17 18 18 19 19 17 17 19 16 15 14 12 11 11 10 9 5 9 11 11 9 9 9 10 10 11 9 8 6 7 5 6 6 7 7 4 3 3 3 3 4 3 3 3 3 2 2 2 2 1 0 -0 0 0

GFSWCAN_sfc_30mbdewp_057.txt.gz
Dewpoint
40 38 37 37 37 38 39 40 41 43 44 43 44 46 46 46 46 46 41 47 48 46 46 45 36 36 38 40 40 44 40 44 45 34 32 35 28 28 30 35 32 28 27 28 34 28 21 33 24 21 32 33 33 36
38 38 38 39 39 41 43 42 43 43 43 44 46 46 46 47 48 44 41 47 50 46 48 52 49 50 46 44 45 42 39 41 42 37 41 40 36 35 30 25 35 30 33 31 32 30 35 35 34 34 33 35 37 36
39 40 40 42 42 42 42 42 43 43 44 44 45 44 44 45 46 45 42 48 48 45 49 51 48 48 49 51 52 41 44 42 44 47 45 43 31 38 31 32 31 33 35 33 33 32 29 37 38 39 39 38 39 39
39 40 41 41 41 42 43 43 44 44 44 45 44 43 44 46 45 45 43 45 49 48 44 47 50 47 48 51 51 53 52 51 50 47 40 37 35 41 35 33 31 33 32 30 30 37 39 40 40 40 40 40 33 30
41 42 42 43 43 43 43 43 43 44 44 45 44 42 44 46 47 47 46 46 49 47 44 46 48 47 47 50 52 51 51 50 44 34 31 37 41 40 38 35 32 33 32 28 28 39 38 39 40 39 36 33 30 29
41 42 42 42 42 43 42 43 44 44 44 45 44 44 45 46 47 45 42 47 49 50 48 42 47 46 47 48 49 50 49 50 47 44 42 41 42 40 32 31 35 38 39 39 39 40 38 34 34 34 32 32 32 32
42 42 41 41 42 43 44 44 45 45 45 45 45 46 47 47 47 43 43 49 50 51 45 41 42 45 47 47 47 48 49 47 46 44 43 39 41 39 37 34 37 39 39 40 40 37 34 33 32 32 34 34 34 34
43 43 43 43 42 41 40 41 42 43 44 45 45 46 47 47 48 45 50 47 48 49 45 39 40 43 46 44 43 46 45 44 43 41 42 40 41 41 36 37 38 37 36 35 37 37 35 36 35 34 33 32 32 31
42 43 43 42 41 40 37 38 41 41 46 46 47 47 47 46 45 47 49 46 50 44 36 37 38 37 44 42 44 42 42 38 42 39 39 39 37 35 37 37 37 36 34 34 35 35 35 35 34 32 31 31 31 30
41 41 42 43 43 45 44 44 43 45 47 47 46 46 42 46 48 48 45 40 37 40 40 39 41 38 41 40 39 38 38 37 35 37 40 37 34 36 36 37 38 37 34 35 34 34 34 33 31 31 29 28 27 27
46 46 46 45 45 45 46 46 46 47 47 48 45 41 45 47 46 42 37 37 37 32 38 40 40 38 42 37 35 38 35 36 32 34 35 34 32 35 37 36 36 36 36 35 35 35 34 32 26 27 27 28 28 27
45 46 46 46 46 46 46 46 47 48 49 48 45 47 46 43 39 35 33 34 36 33 37 38 39 40 40 42 36 36 33 35 31 36 34 31 34 36 36 35 35 36 35 35 34 33 29 25 27 28 29 28 24 22
44 44 45 46 46 47 47 47 49 48 46 45 40 38 37 37 32 32 29 31 31 35 37 37 35 37 38 37 35 35 32 32 35 31 29 32 35 36 35 35 35 34 33 29 28 29 30 30 30 29 28 26 23 20
43 44 43 43 44 45 46 47 48 46 42 38 36 33 34 32 31 32 33 34 34 36 37 37 36 34 36 34 35 31 33 33 30 27 29 33 35 35 35 34 32 28 28 29 29 28 26 25 24 24 22 22 22 19
41 42 42 41 43 44 43 41 40 41 37 34 34 29 29 30 32 32 34 34 35 38 37 36 36 35 33 32 32 31 29 27 28 28 32 35 34 34 31 28 27 27 27 28 29 26 24 23 21 21 22 19 18 16
39 39 38 41 41 42 42 40 38 38 35 33 31 30 32 31 31 32 33 33 35 37 39 37 33 31 32 32 30 29 28 27 30 32 35 34 33 31 27 27 28 29 30 30 29 27 25 22 18 15 19 17 15 13
35 35 39 40 40 39 40 38 36 33 32 31 29 31 32 31 30 30 32 32 36 36 33 34 30 29 33 30 28 30 28 29 31 33 34 33 31 28 28 29 29 30 29 26 24 23 21 21 18 15 11 16 16 14
35 37 39 39 40 37 37 38 35 32 28 30 27 29 30 31 31 31 32 34 35 34 33 31 33 31 29 27 27 28 29 31 33 34 33 30 29 30 29 30 30 28 26 25 23 21 19 16 14 13 11 14 16 15
37 37 37 37 37 35 33 34 35 28 29 31 31 32 31 31 32 33 34 35 35 36 34 33 27 26 26 28 28 29 30 30 30 31 33 33 32 33 32 27 25 24 23 21 17 15 14 14 14 14 15 16 16 15
34 35 37 36 37 33 31 32 35 31 28 30 32 30 31 31 32 32 31 31 31 29 24 23 23 25 26 29 32 31 30 31 30 28 28 29 31 30 29 28 24 22 20 17 18 15 14 14 15 15 15 16 13 13
35 35 38 37 34 34 34 32 31 32 31 30 32 31 30 32 30 29 28 28 24 25 23 27 27 28 31 31 33 33 33 33 31 29 28 27 29 29 28 28 27 26 22 19 17 15 15 14 14 15 15 13 11 13
34 37 36 35 31 31 30 34 32 33 31 31 31 32 29 28 28 28 25 23 23 25 27 27 27 28 28 28 29 30 29 30 30 30 29 28 25 25 25 24 21 19 19 19 17 15 13 13 12 12 12 11 12 12
35 34 32 30 25 25 25 32 27 29 27 28 30 27 27 27 29 30 23 25 24 27 28 29 28 27 25 25 26 27 28 26 25 25 23 22 22 21 19 20 19 15 14 14 15 14 12 12 11 10 12 9 9 10
33 30 27 27 25 24 28 24 26 26 26 25 23 22 23 26 27 20 18 20 21 21 23 26 28 23 22 21 20 22 25 24 23 24 22 18 17 17 17 15 15 15 16 16 14 14 12 10 10 10 7 6 7 8
19 22 25 21 25 22 20 20 22 22 23 24 22 22 23 26 21 18 16 17 17 16 18 22 20 21 19 18 18 18 22 21 18 16 19 19 17 16 14 12 12 12 13 11 10 9 9 9 7 6 6 6 7 7
20 23 20 21 22 22 23 18 20 20 20 20 21 22 26 19 13 12 13 16 15 15 15 18 19 15 14 16 14 14 16 20 17 13 14 15 15 17 16 13 10 9 11 10 8 7 6 6 6 6 6 5 6 8
19 21 24 26 26 26 21 22 23 21 20 21 22 23 22 13 11 13 16 16 15 16 16 17 17 15 14 14 15 16 16 16 15 14 13 12 12 11 9 6 3 4 9 6 5 4 5 4 4 3 3 5 6 5
24 25 21 22 21 23 22 21 19 18 18 20 21 13 11 10 9 15 17 18 17 16 16 16 16 15 14 14 13 14 15 16 15 14 13 13 12 11 11 9 8 8 10 8 6 7 6 6 4 3 4 4 3 3
23 26 23 19 20 20 20 19 18 18 20 20 14 11 9 12 15 16 17 17 16 15 15 15 14 14 12 11 10 8 8 8 8 7 7 7 8 7 8 9 8 8 8 8 7 7 7 7 7 4 3 4 5 4
22 27 19 17 18 16 17 18 16 20 16 12 11 10 9 11 13 15 15 16 13 14 14 13 12 10 10 11 8 7 6 5 3 3 3 2 4 7 9 9 8 9 8 6 5 5 5 4 4 3 3 2 3 3
24 24 20 19 19 19 20 18 16 14 13 12 9 6 7 9 12 12 12 14 12 15 9 8 8 9 8 7 5 5 5 7 5 4 4 4 4 5 5 5 6 5 6 8 6 5 3 3 3 3 3 2 2 1
21 21 21 18 18 23 22 21 20 17 16 14 12 11 11 10 6 7 10 11 9 9 9 9 7 5 6 7 8 6 6 8 5 5 7 4 3 2 2 2 4 3 2 1 2 3 2 1 2 2 2 1 -1 -2
17 16 17 20 19 18 17 19 15 14 13 12 12 10 8 6 4 9 12 10 9 9 9 10 11 11 9 6 5 7 6 4 5 7 7 4 3 3 0 -1 -1 -1 -1 -1 -0 -1 -1 0 -0 -0 -0 -0 -1 -1

GFSWCAN_sfc_30mbdewp_060.txt.gz
Dewpoint
43 42 42 41 41 40 39 39 39 39 39 40 40 40 41 41 46 44 40 46 40 42 43 48 39 35 34 32 36 43 41 43 41 37 34 32 26 29 29 31 27 26 27 30 29 24 24 30 25 21 26 35 38 38
41 41 41 40 39 39 39 39 39 39 40 40 41 41 42 46 46 44 39 44 45 42 43 47 48 51 40 34 41 44 39 41 42 38 38 37 33 33 32 29 35 27 26 26 30 27 31 35 31 35 35 36 37 38
40 40 39 38 38 38 38 39 39 40 43 42 42 46 46 45 45 43 40 43 42 42 43 47 49 48 49 47 45 40 44 44 44 44 42 39 33 35 27 28 33 34 38 32 33 34 35 37 39 38 38 38 38 39
39 38 38 38 39 39 39 40 42 41 44 44 45 45 44 45 46 43 41 46 45 45 42 45 52 46 48 53 50 46 47 50 48 45 40 37 31 38 31 30 30 33 35 33 36 39 39 39 40 40 33 32 32 31
41 40 39 38 39 41 41 42 43 44 44 45 45 45 46 46 46 45 45 43 47 43 40 45 49 48 49 52 51 50 49 48 47 37 34 33 40 39 38 34 32 33 32 30 30 37 35 38 40 35 32 31 32 31
42 42 42 42 43 43 43 43 44 45 45 45 44 44 45 45 45 43 37 43 46 45 41 41 48 47 50 50 49 48 47 47 47 44 43 41 43 37 31 30 36 39 39 37 38 39 38 35 33 32 32 32 32 32
43 43 43 43 43 43 43 44 45 45 44 44 44 45 43 45 44 38 38 46 44 46 40 40 42 47 47 47 46 47 47 46 45 44 42 41 42 38 33 30 37 40 39 36 35 34 32 32 32 34 34 34 33 31
42 42 42 42 42 42 43 44 44 45 45 44 44 44 43 45 44 42 49 49 49 44 44 39 39 43 45 43 43 44 43 42 42 42 43 41 41 38 32 38 38 38 38 36 36 36 33 34 33 33 32 31 31 30
40 41 42 43 44 44 44 44 45 45 45 45 45 46 46 44 43 40 51 49 48 45 38 38 38 38 43 42 41 40 40 37 40 39 39 38 37 34 36 37 36 37 36 35 35 34 34 33 32 31 31 31 26 25
43 42 42 42 41 42 43 43 42 44 45 45 43 42 39 44 49 47 44 44 41 39 39 38 39 38 41 38 38 37 38 36 35 37 39 35 34 36 37 38 37 36 36 35 34 34 33 31 31 31 30 28 25 25
42 43 42 39 39 39 40 42 41 40 44 42 40 40 45 48 46 42 36 36 36 32 37 40 38 38 42 37 36 36 35 34 33 36 36 34 33 35 37 38 36 37 36 36 35 34 33 31 29 28 27 26 26 26
42 42 42 43 43 43 43 41 41 42 42 45 45 46 45 42 38 34 32 33 33 30 37 38 38 39 40 39 35 35 33 34 30 36 34 31 34 37 37 37 37 37 36 35 35 31 29 28 28 27 24 23 24 21
45 45 44 44 45 45 43 41 41 44 48 45 41 40 38 36 32 31 28 30 30 34 37 37 35 37 37 36 35 34 32 31 34 31 30 31 36 36 36 35 34 33 32 29 27 29 30 29 28 23 20 21 22 20
43 44 46 46 46 46 46 45 46 47 41 38 36 32 33 31 30 31 32 33 34 35 36 35 34 34 36 34 33 31 32 33 29 26 27 33 35 35 35 32 29 29 29 29 28 28 27 26 25 23 21 20 19 16
41 42 42 43 45 46 46 46 43 39 35 33 33 28 28 30 32 32 33 34 35 37 36 35 34 34 33 32 32 31 30 28 28 26 32 35 35 35 31 29 29 28 27 26 26 25 24 23 21 20 20 18 19 17
41 40 40 42 43 43 42 39 37 37 34 32 30 30 32 31 31 32 33 33 35 37 36 35 32 31 31 31 29 28 27 26 30 32 35 34 31 30 28 28 29 29 27 25 24 23 21 20 18 18 16 15 16 14
39 38 40 41 40 40 40 37 35 33 32 30 28 30 31 31 29 30 32 32 35 34 32 31 28 29 33 29 28 28 27 28 31 33 34 30 29 28 30 30 29 28 27 26 24 21 18 18 20 16 14 14 16 15
36 38 39 40 38 38 38 37 32 29 27 29 27 28 30 30 30 31 32 34 34 33 32 31 32 28 27 26 26 27 29 31 32 31 30 29 29 30 30 29 28 26 25 23 22 20 18 17 14 15 17 16 17 18
37 38 38 37 36 35 34 35 33 27 29 30 31 31 31 30 31 31 31 33 32 31 30 27 22 22 23 27 27 29 29 31 30 30 31 32 32 31 30 29 26 24 22 20 19 17 17 16 15 17 17 16 15 16
34 36 37 37 35 31 31 32 34 30 27 30 32 30 31 30 30 29 28 29 28 27 24 22 22 24 26 29 30 30 30 31 30 28 27 28 29 28 26 25 23 20 17 16 16 16 16 16 16 16 16 13 12 15
33 35 36 34 33 34 33 31 31 31 31 30 31 31 29 27 25 24 24 25 22 24 22 24 24 26 29 29 31 32 31 31 29 28 26 25 27 26 26 26 25 23 21 20 18 17 17 15 15 15 12 11 12 13
33 36 31 31 28 29 30 33 31 32 31 30 30 31 28 25 24 23 21 21 22 23 26 23 23 23 24 25 26 29 29 29 28 27 26 25 23 22 21 21 20 19 18 18 16 14 13 12 12 12 12 10 10 12
32 30 27 24 21 23 25 30 28 31 27 28 29 26 26 26 28 25 19 20 19 21 25 24 24 24 22 23 24 24 25 23 22 21 20 19 19 18 18 18 18 16 15 16 15 13 12 11 11 11 8 7 8 8
29 27 25 25 23 22 23 23 26 28 28 25 24 21 23 25 21 18 15 15 17 18 20 22 23 20 19 18 18 20 22 21 20 20 20 18 15 15 15 15 14 15 15 14 13 11 11 10 8 6 5 5 6 6
17 20 19 18 21 19 18 20 21 21 20 22 20 21 23 23 17 14 12 12 13 13 15 18 16 17 15 15 15 17 19 18 15 13 16 17 15 14 13 12 11 12 11 8 8 7 6 5 5 5 5 4 5 5
18 23 20 20 20 20 21 17 19 20 19 19 20 23 19 12 9 8 10 13 12 13 13 16 14 12 12 14 13 13 15 18 13 11 12 13 14 14 12 10 8 8 9 6 3 3 4 3 3 1 0 3 4 4
18 20 23 26 26 23 20 21 19 17 17 18 19 17 11 7 7 10 14 15 13 15 15 16 14 13 13 13 14 15 15 14 13 12 12 11 9 8 5 3 3 7 8 5 3 4 4 3 3 2 1 1 2 2
24 24 20 20 18 19 18 16 14 14 14 18 11 7 6 6 7 12 15 16 16 15 15 14 13 11 10 10 10 10 12 14 13 11 10 9 8 8 9 9 9 11 10 8 7 7 6 5 5 3 2 2 2 2
22 24 18 17 17 15 15 14 13 16 15 14 8 6 6 9 11 13 14 15 16 14 12 11 10 9 8 6 5 3 3 6 6 4 3 1 1 3 6 7 7 6 6 5 4 6 6 5 5 4 3 3 2 3
21 22 15 15 13 11 14 15 13 12 10 10 10 7 7 8 10 13 13 12 10 9 9 8 8 7 6 4 3 4 2 1 1 -1 -2 -1 0 3 3 3 3 3 3 3 3 3 4 2 2 2 2 2 0 -1
21 18 16 17 14 15 12 11 10 8 7 5 4 4 6 8 9 11 10 11 9 6 4 4 5 5 4 3 2 1 2 4 3 3 2 1 0 -0 -0 -1 0 0 -0 -1 -1 1 0 -1 -1 -1 -1 -0 0 -1
19 19 15 15 15 16 16 15 11 11 10 8 8 7 8 3 2 6 9 6 6 6 5 4 4 6 4 4 3 3 4 4 4 4 5 3 0 -1 0 -1 -2 -3 -3 -3 -3 -2 -3 -3 -4 -4 -4 -4 -3 -3
12 11 13 17 16 15 17 15 12 10 9 9 9 7 5 2 1 6 8 5 5 4 4 4 6 7 4 3 0 -0 1 1 1 3 5 3 2 0 -1 -1 -1 -2 -2 -3 -3 -4 -4 -6 -7 -8 -8 -8 -8 -8

GFSWCAN_sfc_30mbdewp_063.txt.gz
Dewpoint
40 40 40 40 40 44 43 42 41 40 39 40 40 41 42 42 43 42 40 46 41 40 41 46 42 39 37 36 32 40 41 42 40 36 33 30 28 30 29 30 28 30 30 30 27 26 27 29 28 20 22 34 35 36
43 44 43 43 43 42 42 41 40 39 40 41 41 41 42 41 42 42 39 46 45 40 40 44 43 45 45 39 36 44 36 40 40 38 36 36 31 32 30 26 33 26 28 27 29 29 32 33 26 32 35 35 38 37
41 41 41 41 41 41 41 40 40 40 40 40 41 41 40 40 41 41 41 43 41 37 38 42 43 47 51 50 40 38 43 45 43 44 40 39 33 33 29 29 33 33 34 28 30 33 35 36 38 37 38 37 39 40
41 41 41 41 41 40 40 39 39 39 40 40 41 40 41 41 42 42 42 42 40 40 38 43 52 49 49 51 45 41 43 48 47 45 40 37 34 37 31 31 33 34 35 35 34 38 38 38 39 36 35 36 36 38
39 39 39 39 39 39 39 39 39 40 40 40 41 41 40 41 43 43 45 44 41 38 36 40 46 49 51 52 49 48 47 45 42 39 35 34 39 37 37 35 31 35 34 32 28 37 33 36 38 34 34 33 33 32
39 39 39 39 39 40 40 41 40 38 41 41 41 41 44 46 43 39 36 41 46 45 38 36 45 48 50 50 49 48 48 47 46 43 41 41 43 37 33 31 33 37 38 35 32 39 38 38 34 33 33 32 32 31
40 38 38 39 40 40 41 41 42 43 42 41 43 44 46 43 41 37 34 40 45 44 39 36 41 46 47 47 46 46 46 46 44 43 41 41 42 38 33 30 36 39 38 37 36 35 34 33 32 33 32 33 33 32
42 43 43 43 43 43 42 41 43 43 44 44 44 45 45 43 40 38 48 44 43 40 41 36 39 42 45 43 43 43 42 42 42 42 42 40 40 38 34 36 39 36 36 36 35 36 34 34 33 32 31 31 29 28
42 42 42 42 43 44 44 44 44 44 44 43 43 43 42 38 36 40 47 46 48 43 36 36 37 36 43 41 41 39 40 38 39 39 40 39 37 35 37 38 38 36 36 34 34 33 33 32 31 30 29 27 26 26
41 41 42 43 43 44 44 44 43 44 44 44 41 38 36 40 47 47 44 41 41 40 39 37 39 38 40 38 37 37 37 36 36 37 39 36 36 36 37 38 39 37 35 34 33 32 32 31 31 30 26 25 25 25
42 43 43 43 42 43 44 43 43 45 42 38 37 37 44 45 41 39 34 32 34 34 37 39 39 38 40 36 35 35 35 34 33 36 36 34 33 35 38 37 37 37 37 36 35 34 32 31 31 27 25 26 24 22
43 42 42 42 43 43 43 44 44 40 39 40 43 46 45 41 37 33 32 31 32 31 36 37 38 39 39 37 35 35 32 33 31 36 35 31 33 36 37 36 37 37 35 34 34 32 31 30 29 27 26 24 21 18
41 41 40 40 41 42 42 41 41 42 43 45 41 38 37 34 31 31 29 29 30 34 36 37 36 36 36 35 34 33 30 30 34 33 31 31 36 36 36 36 36 36 34 32 31 31 29 27 26 24 22 20 18 15
42 42 42 42 42 43 42 42 42 41 39 37 35 32 32 31 31 31 31 32 34 35 35 35 33 34 35 34 33 30 32 33 28 26 26 32 35 35 33 32 31 30 31 31 30 27 24 22 21 22 20 18 14 12
44 44 44 43 43 44 43 42 42 42 37 33 33 29 28 30 32 32 33 34 34 36 35 33 33 33 33 31 31 31 30 28 29 26 30 35 34 31 31 30 30 29 28 27 26 24 22 19 18 19 20 17 15 15
41 41 41 45 45 44 43 43 41 38 34 32 30 30 32 31 31 32 33 33 34 36 34 32 31 30 30 30 28 27 27 25 28 31 34 34 31 30 30 29 28 27 26 25 25 25 21 19 18 19 19 16 14 14
39 38 42 42 44 43 42 37 33 31 31 29 28 30 30 30 29 30 32 32 34 34 31 29 28 29 32 28 27 27 26 27 30 32 32 30 29 29 29 28 28 27 27 26 25 21 20 18 16 15 14 15 14 15
38 40 41 41 41 39 38 35 30 30 27 29 27 28 29 29 29 29 31 32 33 32 32 30 30 27 25 25 25 27 29 30 31 30 30 31 31 31 29 28 28 27 24 20 19 19 18 17 15 15 15 16 16 16
38 39 39 39 37 36 34 34 32 27 28 30 31 31 30 29 29 29 30 31 29 29 26 23 20 20 22 26 27 28 29 29 28 28 29 30 30 29 28 27 24 23 22 18 18 17 17 17 18 18 17 18 17 15
34 35 36 37 36 32 30 31 33 29 27 29 29 25 26 26 27 28 27 28 27 26 22 20 20 22 25 27 30 29 30 30 28 25 24 25 27 27 26 25 24 23 22 20 18 17 17 18 18 16 15 15 15 14
31 32 33 34 34 34 32 30 30 31 31 29 30 28 25 24 22 22 21 23 21 22 19 20 20 23 26 28 30 29 28 28 27 26 24 23 25 24 24 24 23 22 20 19 17 16 16 15 16 13 12 11 12 13
30 32 26 27 28 30 30 32 31 32 31 30 29 29 25 22 21 21 18 16 16 17 22 21 21 22 21 22 24 25 25 24 23 22 23 22 20 19 19 20 18 17 16 16 15 13 13 13 13 12 9 9 12 11
30 28 26 23 22 25 27 31 28 30 26 27 28 25 25 23 23 21 16 16 16 18 22 22 22 22 21 22 22 22 22 20 19 18 18 17 17 17 16 17 17 15 14 15 15 14 12 13 11 8 6 7 7 7
25 21 21 20 21 20 21 25 29 27 26 24 22 21 23 21 22 16 11 12 15 17 18 18 20 18 17 16 16 17 19 18 17 17 18 15 13 13 13 12 12 12 13 12 11 9 9 7 6 6 5 4 4 5
17 20 17 17 19 18 17 19 22 23 20 21 20 21 21 21 14 11 9 10 12 12 14 16 15 15 14 14 14 15 16 15 13 12 15 14 13 12 10 9 8 8 8 6 5 4 4 3 2 1 1 3 3 2
18 22 21 20 21 20 20 17 19 19 19 19 20 20 16 12 7 6 9 11 11 12 13 14 13 11 11 12 11 11 13 12 10 9 9 10 12 12 10 7 6 6 5 3 2 2 2 2 1 1 -0 1 1 1
17 19 21 22 22 21 18 15 14 13 14 14 15 11 6 4 5 9 13 13 12 13 14 13 12 11 10 10 11 12 12 12 10 10 10 9 9 7 5 4 5 7 7 5 4 4 4 3 2 1 1 -1 -0 -1
23 22 16 15 14 14 14 12 11 11 12 15 5 4 3 3 5 11 13 14 14 12 10 9 8 7 6 7 8 10 10 9 8 7 6 4 5 5 5 6 5 7 5 5 4 4 4 4 3 3 1 0 1 -0
20 20 15 12 11 11 11 10 8 9 10 9 4 3 4 6 7 11 12 13 13 10 8 6 5 5 4 3 2 1 1 2 2 -2 -4 -3 -2 0 2 1 1 2 1 1 2 6 7 4 3 2 2 -0 -1 -2
17 16 13 10 8 7 8 9 6 7 9 8 8 6 5 6 9 12 10 9 7 5 5 5 4 2 1 0 1 2 1 -0 -1 -2 -3 -2 -1 -0 -2 -2 -1 -1 -2 -3 -2 -1 -0 -2 -2 -3 -3 -4 -4 -3
17 13 13 11 9 8 7 7 6 5 3 4 4 3 3 5 7 9 7 6 4 3 4 3 3 1 2 1 0 -0 0 2 1 1 -0 -0 -2 -2 -2 -3 -4 -5 -5 -5 -4 -4 -4 -5 -6 -6 -6 -6 -5 -5
14 12 12 11 10 13 13 9 7 7 6 5 6 6 3 0 0 4 6 5 4 4 2 2 4 3 -0 -1 -1 -0 1 0 1 2 2 1 1 -1 -2 -3 -4 -5 -4 -5 -7 -6 -6 -7 -8 -9 -10 -10 -10 -9
9 8 11 13 12 11 14 12 9 8 6 7 6 5 1 -1 -1 3 5 1 1 1 2 3 2 1 -0 -2 -2 -1 -1 -2 -1 2 2 1 0 -0 -2 -3 -4 -4 -4 -5 -6 -7 -7 -8 -9 -11 -12 -13 -13 -13